GFSNW_500_spd_000.txt.gz
Wind_Speed
20 18 15 14 13 12 12 12 10 10 12 13 13 11 12 12 11 12 11 12 13 16 17 17 17 18 18 18 18 19 19 22 23 27 30 33 33 32 34 41 44 44 45 45
23 20 17 15 14 13 14 13 12 12 12 14 15 14 14 15 14 15 15 15 16 17 18 18 18 20 19 21 23 25 26 30 31 30 39 40 37 32 34 41 49 50 52 50
26 23 20 17 16 16 15 15 14 14 14 14 15 15 16 16 17 18 19 20 22 22 22 21 22 23 23 25 28 30 32 30 34 34 36 43 43 37 32 37 46 50 53 56
28 26 23 20 19 18 17 16 15 16 17 17 17 17 18 20 21 21 22 24 24 24 24 25 26 28 28 29 31 33 35 33 37 35 38 44 47 44 39 38 40 50 53 53
30 28 26 24 22 20 19 17 17 17 17 19 21 21 21 22 21 24 26 29 29 29 30 30 30 31 33 32 35 39 43 41 43 42 37 46 51 45 48 51 51 53 55 58
34 33 31 30 26 25 23 22 21 20 20 20 23 24 25 26 26 26 29 29 30 30 30 33 33 34 34 35 37 38 42 45 49 53 48 51 51 54 50 55 56 54 57 58
39 38 36 34 32 31 28 27 27 26 24 25 26 28 30 30 29 31 33 32 33 32 34 33 34 35 37 38 39 42 46 47 51 57 56 59 59 49 50 53 55 56 61 63
42 41 40 38 37 35 33 34 32 32 29 32 34 38 37 33 33 35 35 38 37 36 37 38 38 36 39 39 42 41 43 49 53 55 56 60 59 50 53 58 59 58 63 59
45 44 43 43 41 40 38 38 39 36 36 35 39 40 39 39 42 41 39 39 39 41 42 43 47 47 47 49 47 46 49 50 52 50 52 55 51 50 56 56 59 53 58 60
50 50 48 47 47 46 44 41 42 42 43 40 42 43 45 42 43 43 42 44 43 46 47 47 48 52 53 55 54 54 51 51 49 48 51 55 51 55 58 49 44 56 63 58
53 53 52 51 51 50 47 44 47 50 53 48 54 49 47 43 45 44 43 47 46 48 51 55 56 54 53 52 52 50 51 52 51 55 57 57 56 54 52 55 59 63 63 67
57 57 56 55 52 53 54 53 52 55 58 57 52 47 40 42 41 43 46 50 52 55 55 52 55 56 56 53 53 47 53 51 54 53 57 49 50 55 57 54 58 63 66 63
62 58 54 54 56 57 59 57 57 56 56 54 48 43 44 43 41 44 44 43 45 49 48 49 54 56 56 57 58 58 62 53 56 57 50 55 57 57 57 55 57 61 66 71
57 59 59 58 59 60 61 58 56 53 50 48 45 44 41 42 43 44 45 49 44 42 44 48 56 56 58 58 59 63 60 57 54 63 62 62 60 59 57 56 63 70 71 77
51 53 56 57 55 53 51 50 50 49 48 50 50 48 42 41 43 46 47 47 50 51 52 53 55 57 59 60 64 66 59 59 62 69 67 69 68 66 68 67 71 74 80 82
52 52 49 48 47 47 46 46 46 44 42 46 52 52 50 44 46 47 50 51 50 51 49 54 56 54 59 61 67 65 56 59 62 67 67 67 67 66 67 71 76 80 78 74
59 56 53 51 49 46 46 50 49 44 44 47 49 55 54 53 50 53 53 51 52 53 54 56 58 59 62 68 71 57 59 62 64 64 69 71 72 75 76 75 71 66 66 68
61 59 56 55 54 53 54 51 56 56 50 52 55 57 61 61 58 57 59 58 58 59 60 63 64 61 66 72 63 62 61 64 66 71 73 75 75 73 70 66 59 59 63 71
59 53 50 50 53 55 55 51 50 52 54 57 55 55 57 59 58 58 59 62 66 64 65 65 66 71 73 68 67 69 69 71 73 75 76 74 74 71 63 60 60 64 69 77
64 57 55 53 51 50 47 50 53 54 56 56 57 57 56 57 57 60 61 65 68 71 68 70 73 73 71 69 71 72 73 76 78 76 76 72 67 66 64 62 65 67 77 81
48 50 47 47 48 49 50 53 54 56 59 59 58 57 58 57 60 64 68 71 72 74 70 73 74 73 70 73 72 75 73 75 75 74 72 66 59 61 68 73 76 80 79 75
46 49 48 47 48 50 52 54 55 57 59 59 58 60 61 64 66 68 70 72 73 72 70 72 74 72 70 70 72 69 71 71 70 70 69 66 65 69 73 75 75 72 68 64
48 48 49 49 52 55 56 57 58 57 56 57 58 60 61 62 64 65 65 67 67 68 71 73 73 62 65 64 66 68 67 70 71 67 66 68 69 69 71 68 65 61 56 53
54 54 54 54 55 58 58 59 58 57 58 60 61 62 63 63 64 65 66 66 69 72 72 69 60 57 59 64 65 64 65 65 63 66 69 68 67 63 59 57 54 49 48 41
54 55 55 56 57 56 55 54 55 57 59 59 60 62 63 62 62 61 63 65 68 67 61 55 51 54 58 61 61 62 64 65 64 62 61 60 56 54 52 50 47 44 37 40
49 52 55 55 54 51 51 52 54 56 57 57 58 58 58 58 58 59 60 59 57 54 54 56 58 60 64 66 66 64 60 57 56 55 55 52 49 49 48 45 41 34 38 36
49 48 47 46 47 48 49 50 51 52 52 53 54 54 53 54 57 55 55 57 57 58 60 61 62 62 62 61 60 58 57 56 54 54 52 49 46 45 42 38 31 34 33 33

GFSNW_500_spd_003.txt.gz
Wind_Speed
21 19 18 14 12 11 11 13 12 11 10 10 10 11 10 10 10 10 9 9 9 10 11 14 16 17 15 14 14 15 18 19 20 26 31 31 30 28 30 38 39 39 44 45
24 23 21 17 15 14 13 14 15 13 11 10 11 11 13 12 11 11 12 13 14 15 16 17 19 18 17 20 19 22 23 25 24 24 32 33 29 25 28 35 41 41 47 51
27 26 23 20 17 16 14 14 14 14 13 12 11 11 12 14 15 15 16 17 18 19 21 20 22 23 22 23 25 26 28 28 31 31 33 40 40 33 29 34 42 48 48 51
28 27 25 23 20 17 14 13 14 14 13 12 11 13 13 14 16 19 20 22 21 22 23 26 27 28 27 29 31 32 32 30 34 30 35 39 42 39 38 41 44 46 45 43
32 29 28 26 23 20 16 14 14 12 13 12 12 14 15 16 13 18 18 21 23 22 24 25 26 26 28 29 29 33 38 37 40 37 36 41 46 40 44 45 43 42 42 44
34 33 31 29 27 24 21 19 17 17 16 17 17 18 19 20 23 23 24 24 23 24 25 26 29 29 30 31 33 34 37 43 47 48 45 49 45 36 39 42 40 41 46 52
37 35 34 33 32 29 25 26 22 20 20 20 22 23 20 25 28 32 31 32 28 30 31 28 29 32 32 35 36 39 40 43 46 50 49 52 43 38 41 45 45 47 47 47
39 39 37 36 35 33 31 31 29 26 25 26 28 28 27 27 31 35 31 36 34 38 35 35 35 34 38 37 38 38 43 45 46 46 48 51 41 48 52 52 50 48 47 47
40 40 40 39 38 38 36 35 35 32 31 30 33 34 34 33 36 37 40 43 41 39 41 41 42 38 40 43 43 42 42 41 44 43 48 51 46 50 52 49 46 51 55 55
40 41 40 40 40 39 38 38 39 37 36 37 37 38 38 41 46 44 47 48 41 41 41 39 40 43 43 45 41 42 41 44 41 43 47 52 49 51 46 51 57 55 59 60
43 43 43 43 44 44 45 44 43 44 43 41 43 40 42 46 48 52 50 47 38 36 36 39 39 42 42 45 45 43 45 47 49 52 54 55 50 54 51 54 58 60 63 63
55 51 48 47 54 49 48 49 49 51 50 46 46 49 51 53 53 49 47 45 41 41 40 39 43 46 49 48 52 46 50 46 49 51 58 50 51 56 57 59 62 64 65 60
51 52 55 58 59 57 54 55 54 53 55 56 54 49 55 56 55 51 49 45 44 45 43 44 48 50 50 53 55 56 58 54 55 58 54 54 59 59 59 62 65 63 61 62
48 48 48 51 55 58 57 57 56 53 56 58 53 54 51 49 44 41 42 41 39 41 41 44 49 50 54 56 57 60 60 56 55 61 59 64 63 64 66 63 63 67 69 74
42 43 46 48 52 54 55 54 55 53 52 55 51 42 42 45 45 41 39 41 41 42 46 47 48 53 54 55 60 63 56 55 58 63 64 68 67 66 65 67 71 74 76 76
43 43 41 42 44 46 48 50 47 45 44 44 46 44 38 38 41 42 39 39 42 42 43 48 53 52 59 61 65 63 55 59 62 66 66 67 68 68 69 72 73 74 72 69
52 49 45 49 46 45 46 47 46 42 42 42 48 48 47 41 42 44 45 46 48 47 51 55 57 57 61 65 68 59 57 61 63 65 69 69 69 69 70 67 66 64 65 66
58 60 55 53 53 50 50 52 51 48 51 51 51 52 54 54 54 51 50 50 50 52 55 58 56 56 60 66 58 58 63 65 67 67 68 69 71 71 69 68 68 67 67 70
59 62 60 59 58 56 59 56 55 60 55 51 51 56 63 63 62 60 56 55 56 58 60 59 60 60 63 62 62 64 66 69 68 71 70 72 71 67 69 58 67 72 65 68
62 63 62 63 65 63 61 58 57 57 58 56 62 62 63 62 58 58 58 60 62 64 62 64 64 64 61 62 66 68 69 70 71 71 70 61 60 65 65 67 67 73 76 74
65 62 64 63 61 60 58 55 59 60 63 65 64 59 57 57 57 57 58 61 63 65 66 67 69 67 65 65 67 69 71 72 68 64 58 61 49 59 66 70 74 72 71 73
55 54 54 58 59 61 60 61 62 62 58 57 52 50 51 52 53 55 58 60 63 64 65 68 69 66 65 66 69 72 70 66 62 60 62 64 64 67 69 70 72 71 67 64
45 44 44 47 50 54 57 58 58 52 49 49 51 53 55 57 58 60 60 62 63 64 66 67 64 61 66 67 67 66 65 62 62 64 64 65 66 67 69 67 65 61 58 57
44 43 43 44 45 47 47 48 48 49 51 53 54 56 56 57 60 61 61 64 65 67 66 61 59 63 64 64 63 62 62 64 65 65 66 67 66 64 63 62 59 56 54 51
47 48 50 48 48 49 51 52 52 53 54 55 55 56 57 57 58 58 60 62 64 62 53 54 59 60 59 60 63 64 63 63 63 65 65 63 62 61 59 58 56 53 48 43
51 52 51 51 50 50 50 51 51 52 52 53 55 56 56 56 56 57 58 58 53 50 54 56 57 59 61 63 63 64 65 64 63 62 60 60 60 61 58 52 48 44 40 35
49 48 47 46 47 47 48 49 50 51 52 52 52 52 52 53 54 52 50 49 51 55 57 59 59 62 61 63 64 63 63 63 61 61 61 61 60 59 56 48 43 40 33 29

GFSNW_500_spd_006.txt.gz
Wind_Speed
23 20 17 15 12 11 11 13 13 13 13 12 10 8 9 8 8 8 8 9 9 9 11 12 13 12 13 13 14 14 15 16 21 23 26 27 24 25 30 37 38 37 43 43
25 22 20 18 15 13 12 13 14 14 14 13 11 10 9 10 10 10 11 11 12 13 15 17 18 18 18 17 20 22 22 21 21 28 31 32 26 24 32 39 42 43 47 46
27 25 23 22 18 15 14 14 15 15 14 12 10 9 7 8 8 10 12 13 14 17 17 18 20 21 20 21 22 23 25 25 26 26 31 36 29 26 31 40 42 48 44 50
28 27 25 24 21 18 15 14 13 14 13 11 11 10 10 8 7 8 10 11 12 15 17 19 20 23 25 25 25 26 27 27 27 26 31 36 32 35 37 39 36 41 37 38
33 30 28 26 25 22 18 16 14 13 11 12 13 12 10 9 10 11 14 14 17 18 20 20 22 24 25 25 27 29 31 32 37 30 37 41 36 35 37 36 35 39 41 43
35 33 32 31 29 26 23 20 17 16 14 13 14 13 13 13 14 15 17 19 23 24 24 24 25 28 28 29 29 29 32 37 40 39 38 39 29 32 34 36 36 41 42 40
35 35 34 33 30 28 27 23 20 19 18 17 18 18 19 20 20 25 27 25 28 25 27 31 30 30 32 33 33 33 35 38 40 42 40 43 26 37 39 44 42 42 42 45
37 37 36 35 33 31 31 29 26 24 24 23 24 24 25 26 26 29 33 31 31 36 37 37 33 32 34 36 33 31 36 37 37 39 45 48 35 43 47 52 51 49 46 52
38 37 36 36 35 34 34 33 31 30 28 28 29 29 29 31 33 34 37 39 39 43 40 44 38 32 31 30 31 31 32 35 36 39 46 50 41 48 51 55 55 55 58 59
39 38 38 37 36 37 37 37 35 34 32 31 33 34 35 36 38 38 42 42 44 48 45 44 39 36 34 35 32 32 33 35 35 40 44 48 44 48 50 55 61 62 63 62
42 41 39 39 39 37 36 37 38 37 36 37 38 38 38 42 45 46 48 50 50 50 47 45 41 39 38 37 37 36 37 40 42 46 52 51 51 52 52 57 61 62 61 62
44 42 41 40 40 41 40 40 42 44 44 43 42 43 44 48 47 49 53 51 49 49 46 40 41 41 42 42 43 38 43 41 47 47 52 47 50 56 58 59 63 64 63 62
46 46 43 42 43 45 48 50 49 49 51 52 50 48 50 49 52 55 53 51 48 42 40 39 40 43 42 44 46 48 49 48 48 55 48 54 58 58 59 61 63 62 64 64
54 53 52 53 51 52 55 52 55 56 57 58 53 52 52 52 51 50 51 44 42 40 40 40 40 45 48 49 50 55 53 54 57 60 56 63 61 62 64 64 65 68 67 62
60 60 56 58 61 59 49 50 50 50 52 55 54 51 48 45 46 47 42 42 38 38 39 41 42 45 47 50 54 58 54 57 59 61 60 67 65 67 65 67 67 65 64 65
41 44 47 48 43 43 45 46 44 42 40 46 49 46 38 37 37 41 44 43 42 42 42 44 46 48 54 57 58 57 53 57 61 65 65 67 69 65 68 69 68 69 69 73
44 40 39 40 39 40 41 40 37 36 41 41 42 40 37 38 40 41 44 45 46 48 49 49 52 54 56 61 62 51 58 59 61 63 67 68 66 68 68 65 66 68 73 72
49 48 47 46 44 43 44 44 45 45 42 44 47 46 50 49 47 46 46 48 51 54 54 56 56 59 60 64 55 59 60 61 62 65 67 67 67 67 68 69 68 68 64 65
55 53 51 51 50 49 48 48 50 51 47 44 48 47 53 54 57 58 57 53 54 58 59 58 60 61 63 58 60 60 60 63 64 65 65 66 66 67 67 69 70 62 69 70
60 59 57 56 53 50 50 52 52 53 57 55 59 59 59 59 63 65 67 68 67 69 69 68 66 64 57 60 63 63 62 63 65 65 65 65 65 65 67 65 64 67 69 70
63 63 61 60 59 56 54 53 55 59 61 61 59 64 66 64 62 61 64 67 69 71 69 68 67 64 64 64 63 64 65 64 65 65 61 60 61 62 63 63 65 69 72 73
61 60 59 58 60 58 58 59 60 61 64 65 65 61 59 61 62 62 63 62 63 63 63 66 68 66 64 64 64 64 66 66 66 64 62 62 63 66 68 70 70 70 68 63
52 54 55 56 57 57 59 58 59 59 57 57 56 56 56 56 56 56 57 59 60 62 62 62 62 58 60 64 65 66 65 62 62 62 61 62 67 68 70 70 69 66 62 61
43 45 47 46 49 52 52 50 48 47 48 48 49 49 50 52 53 55 56 59 61 62 62 60 57 58 60 62 62 61 59 59 59 61 64 66 68 69 69 67 65 65 63 60
42 43 45 45 46 45 44 44 45 46 48 48 51 53 55 55 57 56 58 60 64 61 54 55 58 60 61 60 59 59 60 61 63 65 66 68 69 67 64 63 63 65 63 59
44 43 43 43 44 46 47 49 49 50 51 51 52 52 53 54 56 57 58 59 53 50 53 56 58 59 59 59 59 60 63 65 66 67 68 67 63 63 64 64 63 60 56 49
46 45 46 47 47 46 47 47 48 50 50 50 50 51 51 56 58 56 49 45 46 51 54 55 56 58 59 60 63 64 65 65 65 64 61 61 62 65 63 59 53 48 42 36

GFSNW_500_spd_009.txt.gz
Wind_Speed
27 25 23 20 18 17 16 14 16 16 16 14 13 11 10 9 7 7 8 7 8 9 9 10 11 13 14 15 16 15 15 18 20 21 22 21 25 28 32 37 38 37 42 38
29 26 23 20 17 16 14 12 12 14 16 16 15 13 11 9 9 9 8 7 8 10 12 14 15 17 19 20 22 21 21 21 23 25 25 22 23 29 35 40 42 41 43 40
31 27 24 22 20 17 15 13 12 13 15 14 13 12 10 9 9 9 8 8 9 11 13 15 17 19 20 21 22 23 23 23 24 27 29 26 22 27 34 40 40 42 34 39
32 29 26 25 23 20 18 14 12 13 14 14 13 12 11 10 10 8 6 6 9 12 14 16 17 19 20 22 24 26 26 24 25 26 30 32 26 30 31 33 32 37 34 35
32 31 29 27 25 23 21 17 13 12 13 14 13 13 11 10 10 9 9 10 11 15 18 21 24 25 26 26 28 30 29 31 31 26 36 36 28 29 35 33 32 37 40 42
35 34 32 29 27 27 25 21 18 15 15 15 14 13 13 12 13 13 14 16 19 21 23 22 21 26 29 32 32 30 31 36 39 33 33 34 24 30 34 35 36 40 44 44
37 36 35 32 30 29 28 25 22 20 18 18 17 16 17 17 17 16 18 21 25 27 29 30 32 35 34 36 37 35 36 38 39 39 38 35 19 35 38 41 42 43 46 44
38 38 37 35 32 31 30 29 27 25 24 22 22 22 21 22 23 23 23 26 29 32 33 37 39 39 43 39 35 33 34 35 39 38 41 42 26 38 41 44 47 46 51 54
37 36 36 35 34 33 32 32 31 30 28 27 27 28 27 27 28 30 30 30 32 35 39 44 44 46 45 42 36 30 34 36 36 36 42 44 37 45 48 52 54 55 58 59
39 38 37 36 34 33 33 33 33 32 32 32 32 31 32 33 34 35 36 37 39 43 44 46 47 48 48 45 38 33 33 37 36 38 42 44 44 49 50 53 57 60 61 61
39 39 39 38 37 36 36 36 36 36 36 35 34 35 35 37 39 40 41 43 44 47 48 49 50 52 48 43 38 34 35 36 34 39 43 42 47 53 56 59 62 61 61 62
40 39 40 41 40 38 38 38 38 38 37 37 37 35 38 42 45 47 47 50 52 56 51 50 50 49 43 39 37 31 37 35 38 42 45 44 51 58 60 63 62 63 64 64
41 41 42 42 42 41 41 40 39 40 40 40 37 40 47 50 51 52 54 54 55 53 50 49 47 43 40 38 40 40 41 35 42 47 44 49 56 57 61 64 67 65 67 70
44 44 45 45 43 43 43 44 44 43 42 44 43 48 51 55 57 58 60 58 54 46 45 41 42 42 39 39 42 46 45 47 51 55 58 59 58 60 66 67 56 72 72 73
46 46 46 48 47 47 46 46 48 49 52 52 51 56 54 49 47 47 46 45 45 41 39 38 41 44 46 46 49 51 48 51 58 63 63 65 66 67 57 69 69 74 75 76
54 50 51 49 48 47 49 57 57 56 54 55 56 48 37 38 37 39 39 37 36 38 40 42 44 46 51 55 56 56 50 59 64 66 67 69 68 66 69 72 76 76 75 75
58 59 55 53 54 60 61 60 58 58 54 48 46 43 34 32 35 37 39 39 41 45 48 49 51 52 56 60 62 54 61 65 68 69 70 71 71 72 73 74 75 75 75 75
46 47 52 56 49 49 50 46 44 42 40 41 42 41 42 42 43 39 39 41 43 47 50 52 54 59 62 65 58 63 67 69 71 71 70 70 72 73 73 74 74 72 71 66
53 51 51 54 51 49 46 46 47 45 41 45 47 46 48 50 47 47 46 47 50 52 54 54 59 62 64 64 67 68 68 69 69 69 72 74 72 73 72 72 71 67 61 61
57 54 54 54 53 53 54 51 52 52 52 53 55 54 53 51 51 53 56 59 60 62 61 64 65 64 64 67 65 64 63 66 70 70 70 70 68 68 67 64 61 61 65 67
64 64 58 56 55 54 54 58 58 55 56 56 56 56 56 54 54 59 62 64 66 68 71 72 72 71 67 65 65 67 68 69 69 68 68 68 67 66 65 65 66 65 67 71
59 61 63 61 60 60 62 61 61 61 62 60 56 51 52 55 59 63 66 68 72 73 70 69 69 67 65 65 66 68 69 69 71 71 71 71 70 67 67 66 66 69 71 72
57 58 60 60 61 62 62 61 62 61 55 55 54 54 57 58 60 62 63 64 64 65 65 65 62 61 62 63 65 69 70 69 69 68 67 64 63 64 66 68 70 71 72 72
47 49 51 53 54 59 59 56 54 54 54 55 54 55 56 56 56 56 57 59 61 62 61 60 61 64 64 66 69 71 69 66 64 63 63 64 65 68 69 70 71 71 69 68
41 43 46 47 49 50 50 50 48 47 47 47 49 50 50 50 52 53 57 59 62 61 57 60 64 67 69 69 67 62 59 60 62 62 63 66 68 69 69 67 66 68 69 69
45 45 44 45 47 47 47 47 47 48 49 49 50 51 53 53 55 56 56 58 55 55 61 65 67 68 65 60 57 59 61 62 63 65 66 67 67 66 65 65 66 65 59 52
43 42 43 44 45 45 45 46 47 48 50 49 51 50 51 53 56 56 52 51 56 61 65 65 61 58 56 57 59 61 63 64 64 64 63 62 63 65 64 63 56 46 40 39

GFSNW_500_spd_012.txt.gz
Wind_Speed
35 34 33 31 29 28 25 24 23 22 21 18 17 14 11 8 8 5 5 7 6 6 7 8 10 13 15 17 17 19 19 21 22 22 23 24 24 27 30 33 35 33 34 30
33 32 30 28 27 25 22 20 19 20 20 18 16 13 11 10 9 8 7 8 9 8 9 10 13 14 16 18 21 22 21 22 23 23 24 26 27 27 30 35 37 37 37 34
32 31 29 27 24 22 20 18 15 15 15 15 14 13 13 11 10 10 10 9 9 8 8 11 13 15 17 19 20 22 23 24 26 27 27 26 26 29 34 39 40 42 34 39
34 31 28 27 24 21 19 17 16 15 14 14 13 12 12 12 11 11 10 9 8 7 9 12 16 19 21 22 24 27 28 28 31 31 31 30 27 30 34 39 39 41 39 39
34 32 30 28 25 23 20 17 16 14 13 13 12 13 13 12 12 11 10 10 10 10 14 16 18 20 22 26 30 33 34 34 33 32 35 36 30 33 37 35 35 38 42 41
35 35 33 30 27 26 23 20 18 15 14 13 13 14 14 13 12 12 12 14 16 17 19 21 23 26 29 32 35 39 41 40 39 32 35 34 28 30 36 36 36 38 42 43
36 35 34 33 29 27 26 25 23 20 17 16 16 16 15 15 16 16 16 18 20 22 24 27 28 30 31 36 38 42 43 43 43 41 36 35 23 32 38 40 40 40 45 46
38 38 36 34 32 30 28 27 26 24 22 21 19 19 20 20 21 21 22 23 25 28 29 31 32 34 39 40 40 43 46 44 44 43 45 43 24 34 40 43 42 46 47 50
38 37 36 35 34 31 30 28 27 27 26 25 24 24 24 24 25 26 26 29 31 32 33 36 39 41 44 46 47 45 46 44 41 40 42 46 35 41 44 47 50 54 54 57
38 37 36 35 34 34 33 31 30 30 30 29 29 29 28 29 30 30 31 33 33 36 39 42 45 48 49 49 47 44 38 37 34 36 39 40 39 43 47 50 55 57 61 62
41 40 38 36 35 35 35 35 34 33 32 32 32 32 32 32 33 34 35 35 37 43 46 50 49 53 52 49 42 40 38 37 33 36 39 37 40 46 49 53 58 60 62 67
44 42 41 39 37 35 35 35 35 34 34 33 34 35 35 35 36 37 36 40 45 51 51 53 57 59 52 43 37 33 34 31 36 40 42 42 48 53 56 59 61 63 67 68
42 41 42 40 38 37 36 36 35 36 36 36 37 36 37 37 39 39 40 45 51 53 55 54 51 49 43 37 36 35 34 35 41 48 45 49 54 56 60 60 65 69 69 67
44 42 42 41 40 39 39 38 38 38 38 39 39 40 40 41 42 42 50 53 55 55 50 48 45 41 37 34 38 41 38 43 48 53 54 57 59 64 64 67 67 74 73 73
44 43 44 43 41 41 40 41 41 41 43 43 42 42 44 44 44 48 52 54 50 45 44 42 39 34 37 41 45 47 42 47 53 57 59 62 64 69 71 75 77 75 73 72
45 46 45 44 42 43 43 43 43 44 45 48 46 44 47 48 50 52 53 46 41 39 38 40 40 38 42 46 49 50 49 54 59 61 64 67 72 75 77 77 74 74 75 77
48 47 47 45 43 42 43 44 44 46 47 49 50 55 55 54 51 50 49 44 42 42 43 43 43 43 47 51 53 52 54 57 63 67 69 71 74 75 76 74 74 77 77 76
55 54 49 50 49 49 49 50 50 48 52 53 59 58 53 49 44 41 42 43 45 48 49 50 48 51 54 57 57 57 60 64 69 71 73 73 73 72 73 76 76 73 74 75
47 56 55 56 59 59 55 56 56 59 58 60 56 48 45 45 46 48 46 47 48 50 52 54 56 57 59 60 61 63 67 72 73 72 72 73 72 73 73 73 74 75 73 72
45 47 47 47 41 43 45 44 47 49 52 53 53 50 49 50 51 52 56 57 56 56 58 58 57 58 62 63 67 71 72 71 71 72 71 70 70 71 72 72 71 71 71 70
54 50 48 52 52 51 50 50 51 51 53 54 54 52 50 52 53 55 58 61 63 63 61 61 63 64 67 69 71 71 70 70 70 70 71 71 71 72 75 76 73 70 70 69
51 55 61 57 58 59 55 56 54 54 55 56 52 51 54 56 55 57 60 61 62 63 64 65 67 67 68 68 68 68 68 69 72 73 71 73 75 75 73 72 71 71 72 72
58 58 59 56 60 63 64 62 59 57 56 54 54 54 55 56 58 59 59 61 63 64 65 65 63 63 65 65 66 68 70 70 71 71 73 73 70 68 69 69 70 73 71 69
62 63 66 67 67 68 67 67 65 60 58 57 57 57 57 56 56 56 58 59 61 62 61 58 60 62 64 65 66 67 66 68 70 69 67 67 66 67 68 68 69 69 67 67
50 55 59 58 57 57 57 56 53 52 53 51 51 53 53 53 54 54 55 58 59 58 57 60 62 64 65 65 64 66 69 69 64 62 63 64 65 66 66 64 65 67 68 66
41 42 42 43 43 43 43 44 45 46 47 47 48 50 52 52 53 54 56 57 55 58 61 63 65 64 62 63 64 65 63 59 59 61 63 64 64 63 64 65 66 66 62 51
39 37 39 41 42 42 42 43 44 46 47 47 48 49 51 52 54 55 55 54 58 61 65 64 61 61 60 61 59 57 57 58 60 62 61 60 61 63 65 65 60 54 43 38

GFSNW_500_spd_015.txt.gz
Wind_Speed
38 39 41 41 39 37 34 32 29 26 24 20 18 15 14 12 9 7 5 6 6 5 5 5 5 8 11 12 14 16 17 18 19 21 21 23 24 26 28 30 31 32 35 25
35 38 39 39 39 36 33 31 27 23 20 18 17 14 14 14 10 10 9 8 7 6 6 6 6 7 9 12 15 16 18 19 21 23 24 25 26 27 29 31 35 33 37 33
32 34 36 37 36 35 31 27 22 19 19 19 18 15 15 14 12 12 11 9 8 6 3 3 5 8 11 12 14 17 20 23 25 26 28 30 30 32 34 37 39 41 34 37
32 32 33 33 33 31 27 24 22 19 17 17 16 15 14 13 12 11 10 9 7 5 4 6 10 13 15 17 21 25 28 29 30 32 32 32 31 33 37 39 41 42 38 37
33 34 33 33 31 29 27 24 22 18 15 13 14 14 14 13 13 12 11 8 7 8 9 12 15 19 20 22 25 31 35 37 38 35 37 34 28 31 35 37 38 38 41 40
34 34 33 32 31 28 25 23 21 18 15 15 15 15 15 14 13 12 11 11 11 12 14 17 20 23 25 25 27 35 39 44 46 39 37 34 30 31 35 36 36 38 41 43
34 34 33 31 30 28 26 23 21 19 18 16 16 15 15 15 14 14 14 15 16 17 18 21 23 26 28 30 32 37 43 47 47 45 41 35 24 32 36 38 35 38 40 42
35 34 34 32 30 29 27 25 23 21 19 17 17 17 17 17 17 17 18 19 20 22 24 25 27 30 32 34 36 41 45 47 47 46 45 38 19 28 32 35 34 38 41 43
35 35 34 33 32 31 29 28 26 24 23 22 20 20 20 20 21 21 22 23 24 27 28 29 31 32 34 40 41 42 47 46 42 41 42 37 29 34 35 37 39 44 47 52
35 33 34 34 34 33 32 31 30 27 27 26 25 25 26 26 26 26 27 27 28 30 31 32 34 36 40 44 47 47 43 41 35 36 36 31 34 37 39 44 49 53 55 59
38 35 33 34 35 34 34 33 32 31 30 29 29 30 30 30 30 31 30 31 31 32 34 37 40 43 47 49 47 40 36 38 34 34 32 34 38 41 45 49 53 56 58 62
42 39 36 35 33 33 33 34 33 33 32 32 32 32 32 32 33 33 32 32 33 36 38 42 47 50 52 49 45 38 30 32 34 36 36 38 43 46 49 52 56 61 66 69
44 42 41 38 36 35 35 35 33 34 34 34 34 34 34 34 35 34 33 34 37 39 41 45 48 53 52 44 43 41 30 29 36 42 39 45 48 51 53 58 63 68 66 69
45 43 42 42 42 40 38 36 35 35 35 36 36 35 36 35 35 35 36 37 40 42 45 50 54 51 44 40 39 38 32 37 40 43 44 50 51 55 58 64 67 70 71 75
44 43 41 41 41 41 41 40 38 38 39 38 37 38 37 38 38 38 38 41 42 45 49 55 53 46 41 42 43 43 41 45 47 51 54 58 60 63 67 70 75 76 75 74
43 43 41 42 42 41 41 40 39 39 40 41 39 39 40 41 40 40 41 42 44 51 56 56 51 46 45 47 49 47 46 49 52 56 60 62 66 69 71 76 78 76 74 75
46 46 43 43 43 44 43 42 41 42 43 42 42 42 40 40 41 42 43 47 53 58 56 52 48 46 49 52 53 50 52 55 56 58 62 65 69 72 75 76 73 73 74 76
48 47 45 44 45 45 44 43 43 43 43 43 45 44 43 42 43 44 47 50 50 45 43 45 47 50 52 55 54 56 57 58 60 63 67 71 73 73 73 71 70 73 74 74
49 49 47 47 46 46 44 43 44 43 44 47 48 47 49 51 52 54 52 50 46 46 47 49 51 54 56 57 59 59 59 61 64 67 69 70 70 67 67 71 72 72 73 74
50 50 52 43 42 45 51 49 47 48 51 53 55 55 51 45 44 43 47 49 50 51 53 54 55 57 57 57 57 57 61 64 65 66 66 65 65 68 70 71 72 74 77 77
53 49 44 43 40 41 47 47 49 53 55 53 46 45 45 45 44 46 49 52 54 57 58 58 60 60 58 60 62 63 63 64 64 65 66 69 70 71 72 74 76 76 73 72
54 54 48 46 46 43 45 49 48 50 51 48 47 45 46 49 50 51 52 54 58 59 61 62 63 61 62 62 63 64 65 64 66 67 69 70 72 73 75 76 74 73 72 72
55 52 51 54 56 56 54 52 53 53 53 54 55 54 53 53 55 55 56 59 61 61 62 61 59 58 59 61 63 63 62 63 65 67 70 72 73 73 73 72 71 72 70 68
56 58 59 59 56 58 56 54 56 60 60 61 61 58 58 58 58 59 59 60 62 61 58 54 54 58 60 60 59 59 62 64 67 69 70 71 71 69 68 68 68 68 65 64
57 55 55 58 61 60 61 60 63 64 63 60 60 59 59 60 58 56 57 57 56 54 51 54 56 57 58 57 59 63 65 67 67 69 68 65 65 66 64 63 63 63 64 62
65 64 59 60 63 64 62 61 62 63 62 59 59 59 58 55 52 52 51 52 51 51 54 56 57 58 58 60 63 65 66 67 66 63 61 61 62 62 60 59 61 62 57 53
42 43 48 51 53 55 57 58 58 56 53 50 49 48 48 49 50 50 50 50 53 55 57 59 60 57 58 60 62 63 63 60 58 58 59 59 58 57 58 58 57 52 49 50

GFSNW_500_spd_021.txt.gz
Wind_Speed
41 46 46 45 42 40 38 36 32 30 27 24 21 20 17 15 14 10 8 6 6 6 6 5 6 5 3 1 1 3 5 8 11 13 15 17 18 21 23 24 27 28 28 24
38 42 46 45 43 40 39 36 33 30 27 24 22 20 18 17 13 11 9 8 5 5 6 7 6 5 4 2 1 2 7 10 13 19 20 22 23 26 27 28 28 25 32 24
35 39 43 46 44 41 39 37 34 31 27 24 23 21 19 16 14 13 12 10 8 8 9 8 8 6 4 4 5 7 11 15 18 22 26 30 34 35 35 32 30 30 25 31
33 38 41 44 44 42 40 38 35 31 28 26 24 21 18 18 15 14 14 13 12 11 11 11 10 9 8 7 9 12 15 18 21 25 30 35 37 37 36 34 33 34 26 26
32 36 39 41 42 42 41 38 34 33 29 27 24 22 20 20 18 17 17 16 15 15 15 14 13 12 11 11 14 17 19 21 24 26 34 38 38 36 33 32 30 28 27 25
30 32 36 38 40 41 40 38 36 34 30 27 24 22 21 20 19 19 19 18 18 17 17 16 15 14 13 15 18 21 24 26 30 32 38 41 40 33 32 28 30 27 26 28
29 30 33 36 37 39 39 38 36 33 30 27 25 24 23 22 21 21 20 20 18 19 18 18 18 17 17 18 21 24 28 31 35 39 44 42 40 35 30 28 27 27 32 34
29 29 30 33 36 37 36 37 36 34 31 30 28 26 23 22 22 22 20 20 20 21 21 20 20 20 21 22 24 28 31 34 38 43 46 41 35 32 30 26 23 29 32 37
30 29 31 31 33 35 35 36 35 34 33 33 31 28 26 24 23 22 21 21 22 23 23 22 22 23 25 27 27 29 34 36 39 45 47 41 36 37 29 32 32 34 38 41
33 32 32 32 33 33 33 34 35 35 35 34 33 30 27 25 24 23 24 23 24 24 25 25 26 27 29 31 32 33 36 39 40 45 44 37 35 33 33 33 37 43 46 49
34 34 34 33 33 32 33 34 35 35 36 35 33 31 29 28 27 27 26 27 26 28 29 29 30 32 32 33 35 36 38 40 42 46 43 42 39 37 38 39 42 47 50 55
35 34 33 33 34 34 34 35 36 36 35 35 35 34 33 31 31 30 30 30 31 32 33 34 35 35 35 36 37 39 37 41 45 48 41 40 42 43 44 45 48 52 57 60
36 34 34 33 34 36 36 36 36 37 36 37 37 36 35 34 33 33 33 34 35 36 37 38 38 38 37 40 40 41 36 44 47 48 38 42 42 42 46 48 53 56 58 62
36 36 36 34 34 35 36 37 37 37 38 38 38 38 37 37 37 37 37 37 38 38 39 40 41 40 42 42 42 43 40 46 47 48 39 41 44 46 50 53 58 60 63 67
38 37 38 38 36 35 35 36 36 38 39 40 39 39 39 39 39 40 40 40 39 40 41 41 42 44 43 46 47 40 41 45 46 45 45 44 49 51 54 58 60 63 66 70
40 39 39 38 39 39 38 37 38 38 38 39 39 39 39 40 40 41 41 40 39 42 43 43 45 44 46 49 47 41 47 44 45 45 48 50 53 55 57 59 62 67 70 71
40 38 39 41 40 41 42 42 39 39 40 40 41 41 40 40 39 40 42 42 42 44 46 46 44 44 47 49 47 46 46 45 47 49 50 52 55 58 60 63 67 69 70 72
38 40 39 40 43 42 42 44 42 42 43 44 47 46 43 40 42 45 45 45 45 46 47 46 44 47 49 52 45 44 44 46 49 51 53 57 60 62 65 68 69 70 71 72
40 40 40 41 41 41 43 44 43 43 45 46 48 46 45 44 43 44 45 46 47 48 49 47 48 51 54 46 44 45 45 49 52 55 58 62 63 65 67 68 69 69 69 70
44 43 42 43 45 44 44 46 45 45 44 46 46 45 46 46 44 44 46 47 48 50 51 52 54 56 47 42 47 48 52 55 56 59 62 63 64 66 66 66 66 67 69 70
44 44 43 40 41 46 49 50 48 43 40 43 43 46 45 45 46 48 51 51 51 51 53 55 56 50 44 48 52 55 56 58 60 63 64 66 65 64 65 65 67 69 70 71
47 46 45 46 48 47 47 49 48 46 45 42 41 41 45 48 50 53 53 52 53 55 54 52 52 51 52 56 58 60 61 62 64 67 67 65 65 65 65 66 68 70 71 71
48 43 46 49 53 53 55 56 53 49 47 44 42 42 46 47 50 49 45 50 53 52 52 54 54 54 59 62 64 66 66 66 67 66 65 65 64 64 65 67 69 69 69 68
49 48 47 53 55 54 55 54 52 52 50 52 53 53 52 52 49 50 50 50 53 57 59 59 59 61 63 66 68 65 65 65 65 66 63 62 62 64 66 67 67 67 65 63
52 53 53 55 55 58 58 60 59 56 54 53 55 55 55 54 54 57 58 59 61 61 62 63 63 64 65 63 64 64 64 65 63 60 61 62 64 64 63 64 64 64 62 61
54 56 56 53 55 54 54 57 59 59 61 60 59 57 60 60 59 59 61 63 64 64 65 65 64 62 61 59 59 60 60 59 59 61 62 63 64 64 62 60 61 60 59 56
56 52 54 55 50 50 50 51 52 54 55 56 58 58 57 58 61 63 63 61 61 61 61 60 56 53 55 57 56 56 58 58 61 62 62 62 61 60 59 58 58 57 55 52

GFSNW_500_spd_024.txt.gz
Wind_Speed
40 42 46 48 46 43 41 39 38 37 34 29 24 20 14 11 11 12 11 7 5 5 5 4 5 6 6 6 5 4 3 2 5 8 11 13 16 20 23 24 24 27 28 22
40 42 45 48 46 43 41 39 38 37 32 28 24 18 15 14 14 13 10 7 5 5 6 6 7 8 8 7 6 4 2 5 10 14 15 19 27 29 32 31 25 22 28 25
40 44 46 47 46 44 42 41 37 35 30 27 23 21 18 17 16 13 12 9 7 7 8 9 9 10 9 8 6 6 7 9 12 15 19 24 29 33 34 34 33 26 21 26
40 44 47 47 46 44 41 38 37 34 29 25 24 22 20 18 16 14 14 12 10 10 11 11 12 13 11 10 8 8 11 13 15 18 22 27 32 36 36 32 30 30 21 23
37 42 45 47 47 45 43 41 37 33 30 29 27 23 20 19 17 16 16 15 15 15 16 15 15 15 13 12 13 13 15 16 18 20 23 29 35 38 36 33 30 26 27 22
35 39 43 46 46 46 44 41 38 36 33 31 28 24 22 21 17 19 20 19 19 18 15 16 16 17 17 15 15 17 19 22 24 24 27 29 37 38 37 34 33 31 26 24
32 36 40 42 44 45 42 41 40 37 34 32 28 25 22 23 22 23 22 21 19 20 21 18 18 19 19 18 19 20 22 26 28 30 32 32 37 39 39 33 31 29 31 30
31 32 37 40 41 43 43 42 41 37 36 34 31 26 26 23 23 24 21 21 21 22 21 20 21 21 21 22 22 24 27 30 33 35 37 37 37 42 34 36 28 31 28 32
30 31 33 37 40 41 41 41 39 38 37 35 32 31 28 28 26 24 25 23 23 23 22 23 22 23 24 25 25 27 31 33 35 37 41 42 44 47 44 41 36 35 33 35
31 31 32 34 36 38 38 38 38 38 37 36 36 34 31 31 29 28 26 26 25 24 24 25 25 26 27 29 29 30 34 36 38 40 42 43 46 48 47 45 40 40 39 41
32 31 32 33 33 34 35 36 37 38 38 37 37 35 35 33 33 30 29 29 27 26 27 27 27 29 30 32 34 35 38 39 40 42 43 45 49 49 50 45 40 41 42 46
34 32 32 31 31 32 33 34 35 37 38 37 37 37 38 37 35 33 30 32 29 31 30 30 32 33 33 35 37 39 42 40 43 44 43 46 51 51 51 46 44 47 49 52
35 33 32 31 30 31 32 33 33 35 36 37 39 37 37 38 37 35 34 33 34 33 33 34 36 37 37 39 39 41 42 40 44 48 44 47 51 50 50 47 47 50 52 55
35 34 33 31 30 32 33 32 34 35 35 37 36 37 38 38 39 38 38 38 38 37 38 38 40 40 41 41 41 44 40 42 43 45 46 52 54 51 49 49 50 52 55 59
36 35 34 33 33 33 33 35 35 35 37 36 36 38 38 39 39 40 41 41 41 41 41 42 43 44 43 44 46 43 38 39 43 47 51 52 52 49 49 50 52 55 59 62
37 35 34 35 34 34 35 36 36 35 36 37 38 38 38 40 40 41 42 43 42 43 44 45 45 44 45 48 49 42 41 40 46 50 53 53 50 48 49 53 56 60 63 64
38 37 36 36 35 36 37 36 33 35 36 37 39 39 40 40 40 40 41 40 39 42 44 44 42 44 49 52 50 40 41 46 51 54 53 50 48 50 53 56 60 62 64 67
37 37 37 38 37 38 38 38 38 39 39 40 42 42 39 37 38 39 40 40 42 44 45 47 46 48 50 54 44 44 45 50 54 52 50 49 52 55 58 61 62 64 67 69
41 42 41 39 37 38 37 39 40 41 43 44 45 44 44 42 41 42 43 44 45 48 49 48 49 51 52 46 46 48 51 54 54 51 51 53 55 59 62 64 67 68 69 70
37 38 41 40 37 38 40 40 41 41 44 46 46 43 43 43 43 42 43 45 46 49 49 49 51 52 50 47 47 49 53 52 53 55 58 60 63 65 67 68 70 68 68 68
38 40 38 39 37 38 41 42 42 42 40 40 40 42 43 42 41 43 44 46 48 50 50 52 53 52 51 50 50 50 51 53 57 59 62 65 67 69 68 68 67 66 66 67
39 39 39 40 40 42 46 46 44 41 39 40 41 42 42 40 40 44 48 49 49 50 52 56 56 53 50 48 51 53 57 61 61 62 64 66 68 67 66 65 65 65 66 68
43 39 39 40 43 47 47 45 45 44 42 39 37 37 37 43 46 47 47 48 50 52 54 52 50 49 50 52 54 58 61 63 66 68 68 68 66 64 63 63 64 66 67 68
50 48 46 45 44 47 48 49 47 47 47 46 46 48 48 50 48 46 47 52 54 55 55 54 54 56 58 60 63 64 64 67 68 68 66 64 62 61 62 63 65 66 66 66
46 49 48 47 47 47 48 49 51 52 53 53 52 51 51 50 51 54 56 56 57 57 56 57 59 61 62 65 66 66 65 66 65 64 62 60 59 60 61 63 65 65 64 64
47 49 50 52 50 49 49 50 53 57 59 58 56 56 58 60 61 59 58 60 60 61 62 63 64 64 63 62 63 66 65 61 59 59 58 60 61 62 63 63 63 64 64 63
50 50 50 50 51 52 53 54 51 49 50 53 52 48 51 54 55 57 59 60 61 61 60 59 58 60 61 60 59 57 55 55 56 57 59 60 61 62 61 61 62 63 61 59

GFSNW_500_spd_027.txt.gz
Wind_Speed
36 39 44 50 50 48 45 42 41 38 37 34 30 26 21 15 12 8 8 7 8 6 8 7 7 8 8 8 7 6 6 3 2 2 5 7 11 16 19 20 22 22 22 14
38 41 46 51 51 48 45 41 41 40 38 34 30 26 17 14 12 9 9 7 7 7 8 8 9 8 9 9 9 10 5 3 3 5 7 8 15 23 27 30 28 19 23 19
40 43 47 52 50 48 46 43 42 41 38 34 30 24 16 15 14 11 9 9 10 8 9 9 9 9 10 11 11 9 6 7 9 11 13 15 19 22 28 33 33 30 22 25
41 45 48 51 50 49 47 44 41 38 36 34 28 23 20 16 14 13 10 13 13 11 10 10 10 11 13 12 11 9 8 9 12 14 17 18 21 24 27 30 33 35 30 28
42 45 48 50 50 49 46 44 42 38 36 31 27 25 21 17 16 13 13 15 17 15 14 10 8 12 13 13 13 12 12 13 14 17 19 21 23 26 29 29 32 32 32 28
42 45 48 50 50 49 47 44 42 40 35 32 30 25 21 21 17 16 17 20 20 13 11 14 14 15 17 19 16 14 16 17 19 19 22 25 27 28 31 34 35 37 35 34
39 43 46 49 49 49 45 41 39 37 35 34 30 24 25 24 18 20 19 19 16 16 20 19 16 17 20 19 19 17 20 22 23 23 26 28 31 33 33 36 39 38 37 36
38 37 42 46 49 47 45 45 41 39 38 36 33 29 29 25 19 20 17 19 22 23 19 19 20 20 22 21 21 21 23 26 27 28 30 31 34 36 34 36 39 38 38 40
35 38 38 38 42 46 47 45 42 41 39 38 34 34 31 28 23 22 22 23 24 23 22 23 22 23 24 24 23 25 27 29 29 32 35 38 41 41 42 43 41 41 41 40
33 35 38 38 39 42 44 45 44 42 41 38 37 36 33 30 28 26 25 26 25 24 25 26 26 25 27 27 26 28 30 32 33 35 38 39 40 44 44 43 45 44 44 42
32 32 33 35 38 39 41 41 42 41 40 40 39 37 36 33 32 29 28 30 28 28 29 28 27 27 28 29 30 30 34 35 36 38 40 43 45 47 44 46 47 48 47 43
34 30 30 31 33 37 38 39 40 40 40 40 41 39 39 37 35 33 34 34 31 33 31 30 30 31 31 31 33 35 38 38 40 40 41 44 48 48 46 48 50 50 49 45
34 34 30 30 32 33 35 37 39 40 40 41 41 39 39 39 39 36 36 37 36 35 33 34 35 34 34 35 36 38 40 41 42 44 45 50 52 50 50 51 52 53 49 46
34 32 32 29 30 29 32 34 35 37 38 39 39 39 39 40 40 39 38 38 38 37 37 37 37 37 39 39 40 41 38 41 40 42 44 52 49 51 51 52 54 52 48 49
36 34 33 33 29 28 30 31 33 33 34 34 33 35 36 37 38 38 38 38 39 39 39 39 40 41 42 42 43 41 36 39 40 46 47 46 48 51 52 55 54 51 50 54
38 36 35 34 33 32 31 29 31 30 30 32 32 32 33 35 36 37 37 36 36 39 40 41 43 42 44 46 45 38 36 40 43 48 46 48 51 51 55 55 53 51 54 57
39 37 36 33 33 33 35 34 31 30 30 31 33 34 35 35 35 35 34 35 37 40 41 42 40 40 45 46 43 36 39 43 48 47 48 50 52 54 55 53 54 57 60 64
40 38 37 35 34 34 34 33 32 32 32 33 35 34 33 33 33 35 34 35 36 39 40 42 41 42 46 49 41 42 41 45 48 48 51 53 54 54 53 55 59 62 65 67
40 39 38 36 35 34 34 33 33 33 34 35 36 35 36 35 35 36 37 38 39 41 43 44 46 48 49 43 45 45 45 48 49 52 55 55 54 51 53 57 61 64 68 70
35 36 37 35 33 34 36 35 35 35 36 38 37 37 39 37 37 37 38 40 41 44 44 45 48 49 44 43 45 47 50 53 54 53 53 54 56 58 60 62 65 68 70 71
36 37 38 37 38 41 41 41 40 38 39 39 38 35 34 35 37 37 38 41 43 45 44 44 47 45 42 42 42 46 49 49 47 47 52 56 59 62 65 67 68 70 70 69
37 37 35 34 35 36 38 38 38 37 37 38 36 33 34 36 38 41 43 44 46 46 45 47 46 44 43 45 48 50 51 50 50 53 57 61 65 67 68 68 70 70 67 65
38 38 36 35 35 35 37 39 40 39 38 35 35 35 35 36 35 37 38 41 44 45 48 51 49 46 48 51 54 55 55 54 57 60 63 66 69 70 67 68 68 65 63 65
47 45 42 40 40 40 39 38 37 39 39 39 39 40 41 41 42 41 43 47 49 49 50 49 51 54 55 55 56 58 59 61 63 65 67 69 66 66 66 64 62 62 63 64
42 42 43 44 44 44 43 43 43 43 44 45 45 46 45 45 47 49 51 51 50 51 53 58 61 62 60 59 60 61 62 63 64 65 63 65 65 62 58 59 61 63 64 65
40 41 41 43 43 43 45 47 48 48 48 48 49 49 51 52 54 56 58 58 57 57 56 55 55 58 59 61 61 61 60 59 60 63 63 61 57 56 57 59 62 63 63 63
41 43 44 44 46 46 46 48 49 51 51 50 48 46 44 45 46 47 47 46 48 49 52 53 53 53 52 53 54 57 59 59 56 54 54 56 58 59 60 59 60 61 61 61

GFSNW_500_spd_033.txt.gz
Wind_Speed
43 40 42 40 37 39 40 44 50 47 44 43 39 36 31 25 25 21 16 12 11 12 13 13 14 17 17 18 17 17 16 13 14 13 9 8 7 6 7 10 13 16 18 19
42 41 43 40 39 40 44 51 52 48 45 42 39 37 32 26 22 18 13 9 8 12 13 13 16 17 18 20 20 19 17 16 15 12 10 9 10 12 13 14 15 16 18 20
44 43 43 41 41 44 48 54 53 50 45 42 39 36 32 27 22 17 12 8 9 11 14 15 17 17 18 20 19 18 18 17 14 14 12 12 14 14 15 17 18 19 21 23
44 44 43 41 44 48 53 56 52 48 45 42 39 37 31 25 22 17 13 10 9 11 12 14 14 15 17 19 18 18 19 18 16 15 14 15 17 18 19 20 21 23 23 24
45 45 43 42 47 52 55 55 52 48 43 41 39 36 31 26 23 17 13 11 8 12 11 13 16 16 17 18 19 19 21 20 19 18 18 19 19 21 24 24 24 27 28 27
45 44 42 44 49 55 57 55 51 48 46 43 42 35 29 26 23 17 14 13 10 13 15 16 16 18 20 20 22 23 23 24 24 22 23 24 21 24 27 27 27 30 29 29
43 42 43 46 50 55 56 54 51 49 45 43 39 35 31 28 24 20 17 14 12 15 17 20 18 17 17 19 21 24 25 26 27 27 28 29 26 27 30 31 30 31 32 32
39 41 43 46 52 56 56 54 50 48 45 41 40 36 32 29 26 20 18 17 14 17 21 21 20 20 19 20 21 24 26 29 31 32 31 34 29 30 33 35 33 35 34 35
36 39 42 47 53 54 53 53 50 47 45 44 41 37 35 31 27 22 21 20 17 17 21 21 22 23 22 23 23 24 26 29 32 33 36 37 31 34 36 37 36 37 39 39
35 38 42 47 52 50 51 51 50 46 44 44 39 36 36 32 28 24 24 23 21 20 18 20 23 25 25 24 24 23 28 31 34 35 38 38 34 38 39 40 42 40 41 42
31 36 40 45 46 47 50 49 48 47 45 41 39 38 36 32 31 29 27 26 25 25 24 23 24 27 27 27 27 28 31 34 33 36 38 39 37 40 40 43 43 43 44 45
28 31 36 41 44 44 46 48 48 46 44 42 40 38 37 36 34 33 32 30 29 30 29 29 29 30 30 32 33 33 34 35 36 36 37 39 41 43 44 46 46 46 47 48
36 35 36 37 40 43 44 45 45 45 44 43 42 40 38 38 37 35 34 34 34 34 34 34 35 36 36 37 37 37 36 37 38 38 37 39 43 44 44 46 47 47 48 50
37 35 36 35 35 38 40 41 42 43 43 43 42 41 39 39 39 38 38 38 38 38 39 40 41 42 42 41 42 42 39 37 39 43 41 44 44 44 45 46 46 48 50 50
34 35 34 33 33 34 36 38 39 40 41 42 42 42 41 40 40 40 40 40 40 41 41 41 42 43 43 43 43 38 34 37 42 43 43 45 44 44 45 47 49 49 50 52
31 31 31 31 31 31 32 32 35 36 37 39 40 41 40 40 40 41 41 40 39 41 41 41 40 36 39 44 41 27 32 40 43 42 41 43 44 46 48 49 49 49 51 54
31 29 27 27 27 27 28 28 29 32 33 35 36 38 38 35 34 34 34 34 34 36 35 35 33 33 37 39 36 29 36 39 40 40 42 44 45 47 48 48 48 48 50 51
29 28 28 28 27 27 26 24 25 26 28 29 31 29 27 28 29 30 30 31 32 32 34 34 34 37 38 37 33 38 39 41 43 45 45 45 46 47 48 49 48 50 54 57
30 29 29 28 27 27 27 27 28 29 30 29 28 27 27 28 28 29 30 31 31 33 34 35 38 38 39 37 39 40 43 44 45 46 43 41 43 44 46 48 51 56 57 54
35 35 36 33 31 30 29 30 30 30 31 32 30 29 29 29 29 29 30 32 36 39 38 39 41 41 39 40 41 42 41 44 45 45 46 48 48 47 47 51 54 55 57 60
36 35 36 34 33 34 34 35 35 33 33 31 30 29 29 29 30 32 35 37 37 40 41 41 43 42 39 40 40 40 40 40 40 41 44 46 49 51 53 56 58 59 61 62
39 37 41 39 38 37 38 39 38 36 35 32 29 28 32 35 36 38 39 39 43 46 44 44 45 41 39 40 43 43 43 44 45 45 47 50 53 56 56 57 58 59 60 61
35 40 41 39 38 38 38 37 35 33 32 28 32 34 35 35 36 39 39 41 42 41 42 44 44 44 46 47 46 49 52 53 55 57 58 57 54 55 55 57 57 58 62 65
34 37 36 34 36 39 38 33 29 29 32 34 34 34 34 33 35 37 39 41 43 46 46 46 44 46 49 51 53 55 57 58 58 55 51 52 54 56 57 59 60 60 62 62
25 28 34 37 37 36 34 32 32 33 34 35 37 38 39 39 40 40 42 44 46 48 49 49 50 51 52 53 56 59 59 58 57 55 55 56 57 57 59 60 60 60 61 63
34 35 33 33 35 36 37 39 40 41 41 42 43 44 45 45 46 48 48 49 51 49 50 52 51 53 54 54 54 53 53 54 55 56 57 57 57 57 59 63 64 64 65 64
43 42 42 44 45 46 47 48 49 49 49 48 48 47 45 48 49 50 50 50 50 51 52 53 53 49 47 46 48 50 52 51 53 55 56 60 63 62 60 60 62 62 62 63

GFSNW_500_spd_036.txt.gz
Wind_Speed
49 44 43 41 44 43 41 42 40 41 48 45 40 35 32 30 28 26 22 19 15 14 15 15 15 15 16 16 16 16 17 17 17 16 15 14 12 10 8 10 13 14 15 13
46 44 42 42 44 42 41 44 42 48 50 46 41 36 33 30 26 23 21 17 13 13 13 12 15 17 18 18 18 18 18 19 18 17 16 14 12 11 12 15 16 17 18 19
45 42 41 42 43 42 43 46 47 52 50 45 42 36 33 28 25 23 18 12 10 10 10 13 16 17 18 19 20 20 21 19 18 18 18 16 14 14 15 17 19 19 22 22
45 43 41 41 41 42 45 49 52 53 50 47 42 38 35 28 25 22 15 12 10 9 13 14 15 16 16 18 19 20 20 20 21 20 19 18 18 18 18 20 22 24 25 26
44 42 41 40 42 41 46 51 54 54 49 46 41 38 36 31 25 19 15 13 9 8 12 14 16 16 16 18 19 21 21 22 23 23 22 23 22 20 22 24 26 27 30 28
43 43 41 40 40 41 48 53 56 54 49 46 43 37 34 29 24 21 17 13 10 10 13 14 15 16 17 18 20 21 22 23 26 26 26 28 25 22 28 29 30 32 33 34
39 46 39 39 40 42 47 54 57 54 50 47 41 37 33 29 26 22 19 16 12 11 14 17 17 15 15 16 18 21 23 25 27 28 30 34 26 28 32 35 35 35 37 38
39 44 39 39 39 44 50 55 55 53 50 46 42 38 34 31 28 25 22 18 15 13 13 18 18 18 18 16 17 20 23 26 30 32 32 35 33 33 37 38 38 38 41 42
39 39 37 38 41 45 50 53 52 52 49 46 43 38 34 32 29 25 23 20 18 17 16 17 19 19 20 21 20 22 25 27 29 30 34 35 33 35 38 42 41 41 43 42
39 34 37 40 43 45 49 51 50 51 49 46 43 40 35 33 30 29 27 24 20 18 17 16 15 18 21 23 23 25 28 30 31 32 36 37 35 37 40 42 43 45 44 45
33 37 39 40 43 45 48 47 49 48 50 45 42 40 36 34 32 30 29 27 25 23 21 20 19 18 18 19 21 24 28 32 31 34 37 39 38 39 41 44 45 46 47 48
36 38 37 39 40 39 42 47 47 47 47 45 42 39 37 36 35 34 33 30 28 26 25 25 25 26 25 25 27 27 31 33 37 38 38 39 42 44 45 45 47 48 49 49
34 32 35 37 40 41 39 47 43 47 44 43 42 39 38 38 36 34 33 32 31 31 31 30 31 32 32 33 34 35 36 38 39 40 38 42 46 47 46 48 49 49 49 49
32 34 37 41 46 51 35 39 42 44 43 43 41 39 38 36 35 34 34 34 35 35 35 35 36 37 38 38 40 42 40 37 40 44 42 46 45 45 46 47 48 48 48 49
29 31 33 39 42 44 42 39 41 41 41 41 40 40 38 37 37 36 36 37 37 38 38 39 41 41 42 43 44 39 33 36 43 45 43 43 42 43 44 45 46 48 50 51
30 26 25 26 33 35 34 34 35 35 35 37 37 37 37 37 37 37 38 39 40 41 41 42 43 40 43 47 44 27 34 39 41 41 41 42 43 45 45 47 48 50 51 52
32 32 34 31 28 28 27 27 27 30 31 34 36 36 36 36 37 37 38 40 40 42 41 41 39 36 40 42 38 33 35 37 39 41 42 43 46 47 47 48 49 47 48 49
30 28 27 27 27 27 26 26 27 28 29 32 33 33 32 33 33 35 35 36 37 37 37 35 34 37 38 38 33 35 36 38 42 44 46 47 48 47 48 48 48 50 52 51
27 28 26 24 24 24 24 24 25 25 27 28 27 25 25 28 27 28 29 31 32 34 34 34 35 36 38 37 36 38 40 42 44 45 47 46 46 46 46 47 49 50 52 55
23 22 23 22 22 22 22 24 25 26 26 25 24 23 24 25 26 28 31 32 34 36 35 37 38 38 38 38 40 41 41 44 45 45 44 43 43 45 47 49 52 54 57 59
26 26 25 23 23 24 25 27 27 27 27 26 25 24 24 25 27 29 32 33 34 37 38 38 39 39 39 42 43 44 45 44 44 45 47 47 49 52 54 56 57 58 56 54
28 28 30 29 28 30 34 34 32 30 29 27 25 26 28 30 31 33 34 35 38 41 41 43 44 42 41 41 41 42 44 46 46 47 49 52 54 56 55 55 56 55 52 55
31 31 33 33 34 35 38 35 31 29 29 30 30 30 32 32 32 34 35 37 39 39 42 44 42 41 43 44 46 47 47 49 51 52 53 54 56 58 56 54 52 53 56 59
46 41 36 36 39 40 37 32 31 31 29 29 30 30 30 31 34 35 36 37 38 40 41 40 41 44 46 48 49 52 54 55 56 58 59 58 53 52 53 54 55 57 60 60
23 29 36 39 38 36 32 30 28 28 28 29 29 30 31 32 34 36 38 40 43 45 46 47 49 50 51 53 55 57 58 59 59 58 56 55 55 56 56 57 56 56 58 61
20 20 22 22 22 25 28 31 32 32 32 32 33 35 37 39 42 44 45 47 48 47 49 51 52 52 55 56 56 59 59 58 57 56 56 55 53 52 52 55 57 58 59 59
28 27 27 29 29 31 32 32 33 35 37 39 42 44 45 47 48 48 48 49 50 51 52 53 54 55 56 54 53 53 53 53 53 50 50 51 52 52 52 52 55 59 61 64

GFSNW_500_spd_042.txt.gz
Wind_Speed
67 61 59 61 65 69 70 66 60 56 54 48 38 36 34 33 35 33 29 25 24 21 18 17 16 15 18 20 21 22 21 21 21 21 20 21 19 16 16 15 14 13 12 12
67 60 65 65 68 72 73 64 61 58 55 45 40 40 38 39 40 36 31 27 25 21 20 19 18 18 18 20 21 22 21 21 19 19 17 15 15 17 18 17 17 15 17 15
62 70 77 74 74 74 65 59 59 57 53 46 39 41 43 43 40 36 32 28 24 21 20 19 20 20 21 21 20 20 20 19 17 16 17 17 17 20 21 21 19 20 18 21
76 78 68 71 69 65 60 60 59 57 55 49 43 42 45 45 40 36 31 28 24 20 18 17 19 19 19 19 19 19 19 18 18 17 18 19 19 21 22 22 22 23 22 23
81 87 73 65 68 60 60 58 58 59 50 46 45 48 49 45 39 33 30 25 22 18 15 15 16 16 15 14 15 17 18 18 20 20 19 20 22 23 24 24 25 26 29 27
84 83 77 66 71 58 54 55 57 57 49 49 49 52 49 45 38 34 31 26 22 16 12 12 14 14 14 14 14 15 15 16 19 19 21 24 23 21 26 28 29 32 35 35
74 81 70 79 55 51 54 54 54 56 51 48 50 52 49 43 38 34 32 27 21 15 11 11 13 15 14 14 14 13 13 15 18 18 23 26 21 24 28 32 33 36 39 41
65 68 59 62 57 53 51 50 52 52 49 47 52 53 50 44 39 37 33 27 21 15 11 9 10 14 14 13 14 13 14 15 18 20 22 25 25 25 29 34 34 37 39 42
63 60 57 56 52 50 49 49 46 47 48 47 53 54 50 45 41 38 31 26 21 17 12 9 9 9 14 16 15 15 16 18 19 19 22 24 24 26 29 32 34 35 38 40
59 58 55 52 49 48 46 47 44 47 47 48 53 54 50 46 42 36 30 26 23 19 14 11 10 10 9 13 15 17 19 21 21 23 25 24 26 27 28 31 35 38 39 41
59 55 50 47 45 46 45 44 43 46 46 49 54 54 50 46 41 36 31 28 23 20 18 16 13 12 11 11 12 14 16 17 18 21 24 28 29 32 34 36 38 40 43 45
53 49 45 43 43 43 40 43 41 43 44 47 51 51 49 44 41 34 32 29 27 24 23 19 18 17 16 15 16 18 20 22 24 26 28 33 36 38 39 41 42 43 43 44
46 43 41 40 42 40 35 35 38 38 40 44 49 49 46 45 41 36 34 32 29 27 24 23 23 23 22 23 23 25 27 28 30 32 34 38 39 41 42 43 43 42 42 43
39 43 42 40 38 36 34 33 36 35 35 38 45 45 44 42 39 36 34 32 30 28 27 27 27 27 27 28 30 30 32 33 36 36 38 40 41 42 43 43 42 42 42 43
35 39 41 39 36 35 32 35 31 33 35 33 39 42 41 40 38 35 33 31 30 29 29 30 30 31 33 33 34 34 35 37 39 39 40 41 41 41 40 40 40 41 43 45
38 37 35 35 36 35 34 35 35 34 34 31 34 41 40 39 37 35 34 33 32 32 32 32 33 33 35 37 37 36 36 38 39 40 40 40 40 39 39 40 42 43 44 45
36 36 36 34 34 34 40 35 30 33 34 34 31 34 40 39 37 36 35 34 33 34 34 35 34 35 38 39 40 35 36 37 37 37 38 39 40 42 43 44 45 46 47 48
32 31 34 33 33 34 35 37 34 36 30 31 32 35 34 36 35 33 31 30 32 36 36 36 36 38 39 40 34 34 34 34 35 37 39 41 43 43 44 46 48 48 48 49
35 35 35 34 37 34 33 37 37 35 31 31 31 32 32 34 34 35 35 35 35 35 36 36 37 38 37 32 30 31 34 36 37 39 41 43 44 47 48 48 47 48 50 51
30 32 31 34 29 26 23 26 26 25 25 24 24 26 28 29 31 32 33 34 35 36 35 35 36 33 30 30 31 33 35 38 40 42 44 45 46 46 46 47 49 51 53 55
26 31 27 29 28 32 27 26 25 24 22 22 23 24 25 26 28 29 32 32 33 35 33 33 32 31 30 30 33 36 38 40 40 41 41 41 43 46 48 51 53 55 56 58
21 26 27 31 25 23 23 22 22 20 19 18 18 20 22 24 25 27 29 30 32 34 31 31 32 30 31 34 36 37 37 37 39 41 43 45 47 50 52 54 57 59 60 59
17 17 18 20 22 24 21 19 18 18 17 19 19 20 20 22 24 26 28 30 32 32 34 34 31 31 34 36 37 37 39 42 44 45 47 50 53 54 55 55 55 55 56 57
19 17 17 19 20 17 16 16 18 18 18 18 19 19 22 23 26 29 30 33 34 35 34 31 31 34 36 38 40 43 44 46 49 52 52 52 50 50 51 53 54 55 55 53
21 21 23 22 20 22 23 24 24 24 24 24 26 26 27 29 32 32 33 34 35 35 33 34 35 38 41 43 45 48 51 51 50 48 46 47 50 52 54 55 54 51 48 45
33 33 26 23 25 25 27 29 30 29 31 32 33 34 32 29 31 32 31 32 33 34 37 39 41 44 46 47 49 48 44 42 43 45 48 52 55 56 55 54 51 49 48 51
33 32 31 30 30 30 31 33 33 32 32 28 28 27 28 28 30 31 32 34 36 39 42 45 46 46 45 43 40 39 42 45 49 51 54 57 57 56 54 53 52 52 53 55

GFSNW_500_spd_045.txt.gz
Wind_Speed
80 77 74 72 68 66 60 60 61 60 60 57 48 45 39 33 31 30 26 23 22 21 21 20 18 17 16 17 16 16 20 20 23 18 23 21 23 21 20 20 18 17 18 16
86 81 78 73 70 65 62 63 65 61 61 56 54 50 41 38 37 35 30 27 26 25 23 21 20 20 19 18 19 22 19 22 23 25 22 21 20 19 19 21 21 19 20 16
90 85 79 76 71 67 65 69 66 62 59 56 56 53 47 42 40 40 35 32 31 27 24 23 21 20 18 18 20 21 23 24 24 24 17 19 17 19 20 23 24 19 19 21
93 86 78 73 70 70 75 73 66 60 60 60 58 54 43 43 42 42 38 36 32 27 25 22 21 20 20 22 23 24 24 24 24 23 23 21 20 20 21 23 21 25 18 25
93 88 79 70 75 79 72 65 68 68 54 61 60 57 45 47 43 43 39 37 31 28 24 21 22 22 22 23 23 23 22 24 23 23 22 22 22 21 20 22 23 25 25 31
86 81 74 83 83 83 76 70 66 68 65 63 61 54 46 49 42 44 41 35 33 30 27 22 21 21 20 19 18 19 21 22 23 24 22 24 21 18 21 24 25 29 32 32
88 78 79 83 79 71 69 69 64 61 66 59 57 54 48 50 50 43 40 37 34 28 25 22 20 19 19 18 18 19 19 20 21 20 21 23 18 21 23 26 28 32 35 36
94 88 86 73 71 74 76 70 69 58 55 53 57 54 48 48 39 46 42 37 31 30 26 21 17 15 17 18 18 19 19 18 19 19 20 21 20 23 25 28 29 36 35 38
97 90 80 84 82 71 67 61 52 54 60 59 57 53 51 52 54 47 43 39 35 31 25 19 15 13 14 19 18 18 18 18 19 18 20 22 21 23 26 29 32 33 33 37
82 88 85 83 77 65 62 61 61 60 56 52 52 52 50 52 53 47 44 41 37 31 25 20 16 14 13 14 17 18 19 20 20 20 22 23 24 25 25 26 30 31 34 38
79 82 68 64 69 58 53 54 54 53 54 55 47 53 51 55 52 47 45 42 37 31 26 22 17 14 13 12 13 15 17 18 17 19 21 23 22 25 27 30 33 36 39 42
72 64 62 61 66 65 59 51 49 49 49 47 45 49 53 54 52 46 44 40 34 30 30 24 21 17 15 15 16 15 17 17 19 20 25 26 29 31 33 36 38 41 43 45
63 60 53 62 60 53 45 47 45 45 47 47 48 49 52 54 51 45 43 39 34 31 29 28 24 22 20 20 21 20 23 23 25 26 30 32 35 37 38 41 43 44 45 45
66 62 60 59 57 47 44 46 42 46 47 48 44 44 50 52 51 48 43 38 35 33 33 31 27 25 25 24 26 26 27 28 31 32 35 37 40 40 43 44 45 45 45 43
58 57 56 55 49 41 41 43 38 41 46 46 41 43 48 50 49 46 43 39 37 35 34 32 30 29 30 29 30 31 32 34 36 38 38 40 44 43 44 45 44 43 43 44
52 51 50 48 43 40 39 35 33 36 40 37 40 42 46 46 45 45 43 40 38 36 34 33 33 32 33 34 34 34 35 37 39 42 42 44 46 44 44 43 43 43 45 46
48 48 47 46 38 36 34 30 33 31 32 33 33 38 41 42 41 40 39 38 36 36 35 35 35 35 37 37 38 36 38 40 42 43 44 45 43 44 43 44 45 46 47 48
44 43 42 43 42 35 32 32 34 38 36 31 30 36 39 40 39 38 36 36 37 37 38 38 39 39 40 42 39 39 40 42 42 43 42 44 44 44 45 46 47 49 49 48
38 38 41 40 41 35 34 36 17 31 36 34 30 30 33 37 38 37 37 38 38 40 40 42 41 40 42 40 39 40 40 41 41 41 42 43 43 45 46 47 47 46 47 48
35 37 38 41 37 32 33 34 24 31 32 30 31 30 30 31 32 35 37 38 38 40 39 40 42 42 40 38 37 37 37 41 42 42 42 43 45 45 44 44 46 49 50 53
37 36 37 35 30 29 29 33 32 32 31 26 25 27 28 29 30 32 35 36 39 41 42 43 43 40 34 34 35 37 40 41 41 42 43 43 43 44 47 48 50 53 55 57
34 32 31 32 33 31 29 31 32 28 27 24 24 25 27 29 31 33 35 36 39 41 40 38 40 32 31 33 37 40 42 41 41 41 42 44 46 49 51 54 55 54 52 51
28 28 30 28 26 28 31 26 18 18 19 21 23 25 26 28 30 31 32 34 35 34 35 36 33 32 35 38 40 41 40 40 41 43 45 47 49 52 54 52 49 49 52 55
24 27 27 29 29 26 23 20 20 21 23 24 24 23 23 23 24 28 29 31 33 34 34 32 33 36 37 38 38 38 40 41 44 46 48 51 52 49 46 47 50 53 56 58
21 20 19 20 18 19 20 19 20 19 20 20 21 22 22 23 27 28 30 33 35 36 34 35 36 37 38 38 39 41 44 46 49 50 50 47 45 45 49 52 55 57 60 61
21 19 17 17 16 16 19 19 20 21 22 25 26 27 28 30 33 34 36 38 39 37 37 37 37 38 40 42 44 48 50 51 50 48 46 45 48 51 54 56 59 59 60 59
24 23 26 25 22 19 19 22 23 25 28 32 34 34 36 38 39 39 37 35 34 36 37 39 40 42 45 48 50 51 50 48 46 45 48 51 53 56 58 59 60 60 58 55

GFSNW_500_spd_048.txt.gz
Wind_Speed
80 76 74 70 65 63 63 59 55 52 54 54 49 44 44 42 37 37 30 26 23 20 21 19 17 17 15 17 18 21 20 18 24 13 19 14 16 17 19 19 17 22 18 22
84 79 76 73 68 67 65 56 57 56 57 53 49 47 46 46 41 41 32 30 24 23 21 17 18 18 24 22 21 21 24 20 19 16 16 12 16 19 22 23 25 21 19 18
88 83 77 74 72 71 68 68 68 65 55 52 50 48 47 48 45 41 35 31 28 28 27 26 24 25 23 17 22 20 21 18 20 20 16 19 20 19 22 23 24 18 22 19
90 86 81 76 75 74 75 73 69 63 57 53 52 50 50 49 47 44 38 35 34 32 29 27 26 25 21 22 20 21 21 20 21 23 23 25 21 22 19 22 21 23 18 23
93 89 85 80 77 78 78 72 67 61 57 56 53 46 45 49 47 45 38 40 36 35 31 27 25 25 22 22 22 23 24 24 27 25 24 27 23 24 22 22 21 23 23 26
90 93 88 84 83 83 78 67 65 62 60 57 52 43 47 48 47 45 38 38 37 35 27 26 30 25 25 24 23 24 23 24 25 24 26 27 25 22 23 22 23 24 26 27
87 89 91 89 87 83 68 66 65 59 61 56 50 52 50 51 47 38 38 43 39 38 34 29 27 25 23 23 22 21 21 22 23 23 26 28 22 23 23 23 24 27 30 31
90 89 90 91 86 81 75 70 66 61 52 55 59 58 53 52 46 45 38 44 47 45 38 32 26 25 24 23 23 22 22 23 22 23 24 22 22 22 21 23 25 31 29 30
84 93 88 86 88 82 75 73 65 55 61 53 52 57 54 49 49 53 38 47 47 42 38 33 29 24 21 24 21 21 21 21 22 21 22 23 22 20 21 23 27 28 28 31
65 91 91 86 83 78 74 67 60 57 64 55 51 58 54 49 54 47 53 47 48 44 38 35 29 25 22 22 17 20 21 21 21 21 22 21 24 18 23 25 27 27 28 31
65 88 93 86 82 76 73 62 51 64 52 41 55 50 52 55 53 53 48 56 49 45 40 35 28 25 20 19 15 16 21 22 21 23 22 23 20 22 21 23 26 29 32 36
77 96 99 89 77 72 75 54 51 37 19 53 46 57 59 59 58 44 30 44 42 43 41 35 30 26 22 19 17 17 17 17 17 18 20 20 22 23 24 28 32 35 37 41
96 93 90 83 80 73 72 60 64 47 36 37 54 53 59 58 56 54 54 42 44 45 42 35 32 29 24 22 20 20 19 18 20 21 25 27 27 29 31 35 38 40 42 44
100 93 91 84 84 73 71 55 49 54 52 37 49 50 51 53 51 50 50 47 42 42 41 37 35 31 28 25 24 24 25 22 26 25 30 33 35 34 35 40 42 45 47 47
87 87 80 72 60 64 58 56 50 53 50 49 44 49 44 49 51 49 49 45 45 46 43 40 36 32 30 28 29 29 28 29 30 32 33 37 40 40 41 43 46 48 49 47
65 68 64 63 67 54 53 50 45 45 35 45 43 45 45 46 48 48 50 46 46 50 43 40 36 33 33 33 33 33 32 34 36 39 39 40 42 44 46 48 49 48 47 47
61 68 72 62 48 52 47 45 42 39 38 40 41 42 45 44 44 46 49 48 47 47 43 40 37 35 35 35 37 36 35 38 40 42 44 44 46 46 48 49 48 47 47 47
61 60 59 53 45 47 42 41 40 34 33 39 39 43 42 41 42 44 47 46 45 45 44 41 39 38 38 40 40 39 40 42 43 43 46 48 49 49 48 47 47 47 47 48
50 52 50 48 37 39 28 37 35 35 28 30 35 35 34 38 39 40 40 40 41 42 42 42 41 41 43 42 41 42 43 43 44 47 48 49 48 47 47 47 47 48 48 49
51 43 48 48 36 40 37 32 33 37 20 35 28 26 33 35 36 38 39 38 39 41 42 43 44 43 42 43 42 42 44 46 49 49 48 47 47 46 47 47 47 48 50 52
50 50 40 35 35 33 32 31 21 29 33 32 30 30 33 33 35 36 37 38 40 40 41 42 43 43 40 41 42 45 45 47 47 47 46 46 47 47 47 47 48 50 53 55
44 42 41 37 39 29 26 33 22 20 29 35 34 30 30 30 34 34 36 36 38 40 40 40 41 38 39 39 41 42 44 45 45 46 47 47 47 47 47 50 52 54 57 59
33 36 35 34 32 30 30 33 29 18 26 18 16 18 20 23 26 29 31 33 36 37 40 41 39 35 35 37 39 41 43 45 46 46 46 45 46 49 51 53 56 58 56 53
29 28 30 32 30 25 21 19 24 22 21 23 24 24 24 23 25 28 30 32 35 37 38 36 32 33 35 37 39 41 42 42 43 43 45 47 50 53 55 57 56 53 52 55
27 25 30 29 25 23 24 22 21 17 19 22 24 25 27 28 29 28 29 30 31 31 31 31 33 36 39 40 41 42 42 42 42 45 49 52 55 57 57 54 52 53 56 58
21 20 23 28 23 21 21 18 19 20 22 23 25 26 26 26 27 26 26 28 30 31 35 39 40 42 41 41 41 41 42 44 47 51 54 56 55 53 51 52 55 57 60 63
21 18 20 21 19 16 16 17 16 16 19 21 21 24 27 28 31 32 33 36 38 40 41 41 40 39 39 40 41 43 47 51 54 55 53 52 51 52 54 56 59 62 64 65

GFSNW_500_spd_054.txt.gz
Wind_Speed
98 92 87 80 76 72 69 66 63 59 64 66 62 55 51 47 43 45 43 40 39 32 26 21 21 20 21 21 25 22 23 25 20 14 17 24 24 17 18 17 15 19 19 17
101 98 92 87 81 76 72 69 66 64 63 60 57 56 55 50 42 45 44 40 39 32 28 26 23 21 25 23 28 24 23 25 24 19 21 16 17 23 23 20 23 23 24 17
100 101 97 92 85 80 76 74 72 70 66 55 52 54 55 53 39 46 45 40 40 34 30 27 27 22 27 25 27 24 27 25 25 19 17 22 24 23 21 23 24 25 25 23
96 103 100 95 90 84 82 81 76 68 63 56 54 56 58 58 42 47 45 44 44 36 33 29 29 26 30 30 28 31 28 29 24 22 21 22 25 26 23 25 25 25 19 18
97 103 103 95 93 89 88 84 74 66 58 55 54 53 52 57 47 46 48 46 41 38 33 31 27 28 27 27 28 31 31 28 26 25 23 25 27 28 25 23 24 26 23 21
80 102 104 100 98 96 91 81 71 66 60 58 58 53 53 55 47 47 40 40 40 39 27 29 28 30 28 27 30 29 27 28 27 26 26 27 30 26 29 29 27 29 27 26
54 95 105 103 100 95 86 76 70 67 64 62 56 53 52 54 48 42 39 40 41 32 29 33 31 32 32 36 35 32 28 28 29 28 28 32 27 27 27 26 26 26 27 27
41 78 101 103 102 95 84 78 72 66 65 60 58 55 51 47 46 46 40 42 42 38 37 36 33 33 37 41 36 32 31 28 28 30 29 28 25 25 24 25 27 27 27 24
39 61 92 99 100 91 85 80 74 66 63 61 59 54 52 49 47 41 44 45 43 41 40 37 39 36 36 40 36 35 32 29 29 29 29 29 23 25 25 23 26 23 21 21
39 55 77 95 97 91 88 83 75 66 59 60 59 56 55 50 42 42 39 40 40 40 37 38 40 38 38 41 36 32 30 30 31 30 30 29 24 24 24 25 19 19 22 24
37 55 69 92 97 91 87 81 74 67 62 59 58 56 54 51 47 41 40 41 43 39 39 41 41 40 42 42 38 32 32 31 31 29 28 29 24 23 23 20 23 23 24 26
43 58 64 88 94 90 87 81 73 66 62 56 52 52 52 46 44 44 39 37 39 40 35 33 45 39 44 40 37 35 35 31 32 28 26 26 26 23 23 21 21 22 25 27
67 66 68 81 92 88 85 78 71 62 57 50 40 44 48 46 40 42 42 40 40 36 35 34 37 39 44 36 38 36 36 33 31 29 25 22 21 19 19 22 24 26 29 31
63 60 59 74 88 88 83 77 71 63 55 57 47 34 33 40 40 41 45 36 35 36 40 39 42 34 33 32 38 38 36 33 30 29 26 24 24 23 24 26 28 30 32 35
48 43 57 76 88 86 83 76 70 58 51 46 41 40 31 36 42 39 36 34 39 39 39 41 39 37 35 40 39 38 38 34 32 30 29 28 27 27 28 30 32 34 37 39
37 44 63 79 86 82 76 72 58 55 45 37 36 41 41 34 31 35 41 42 36 39 41 53 47 41 46 46 49 42 38 35 32 31 32 32 32 32 33 35 36 38 40 42
45 55 70 81 81 73 67 61 55 53 47 27 31 34 40 30 40 43 42 42 39 41 44 54 49 51 46 48 45 40 39 37 34 33 33 34 36 37 37 39 41 42 44 46
54 61 75 81 75 68 60 52 47 45 41 37 43 30 37 40 28 32 33 45 37 48 38 26 34 32 36 40 41 41 40 39 36 36 36 36 38 40 42 44 45 45 47 49
59 70 77 73 64 58 55 50 39 35 39 18 24 29 23 22 26 33 36 35 42 24 32 27 34 38 45 47 42 40 41 40 40 39 39 40 42 44 46 46 47 49 50 51
69 70 68 66 64 49 40 38 39 35 30 23 25 13 16 21 24 28 35 39 40 39 40 42 41 45 49 41 34 36 38 40 41 43 44 44 45 46 47 48 50 50 51 51
76 77 63 50 49 43 27 31 27 29 31 32 26 14 13 16 26 30 34 39 40 40 39 39 40 40 42 43 40 40 40 42 44 44 45 46 47 48 49 49 49 50 50 51
73 66 46 35 34 31 29 27 26 20 16 16 24 25 20 15 22 31 35 34 36 38 38 41 41 35 35 38 39 40 41 41 41 43 45 47 48 48 48 49 50 50 51 51
41 40 30 31 29 28 28 29 32 27 25 22 23 21 20 20 25 24 29 34 37 38 40 37 37 32 31 32 35 37 39 41 44 45 45 44 45 47 49 49 50 51 50 51
46 38 33 24 25 22 24 17 15 15 16 23 25 21 19 22 22 21 24 28 30 32 33 29 29 29 32 35 37 40 40 40 39 39 42 44 47 48 49 50 50 50 50 51
35 28 25 17 14 17 12 15 17 14 16 13 18 27 24 22 20 25 25 28 31 29 29 30 33 41 40 36 32 31 32 34 37 40 43 47 49 49 48 48 48 49 53 57
23 27 18 16 19 14 14 15 13 14 15 17 17 20 22 23 25 24 25 26 29 30 33 34 30 27 25 27 32 33 36 39 43 46 46 46 45 44 45 48 51 55 61 63
20 23 25 18 17 18 18 18 17 16 19 22 23 20 18 18 19 19 18 18 20 22 24 25 26 28 31 33 37 40 43 44 43 41 40 43 46 48 51 57 61 60 59 58

GFSNW_500_spd_057.txt.gz
Wind_Speed
85 96 98 94 87 84 80 74 71 65 66 66 59 54 53 52 47 50 48 49 44 40 37 32 27 22 19 19 20 24 28 33 32 29 20 17 21 25 25 24 20 21 23 19
54 93 100 99 95 90 85 79 74 72 70 68 56 54 55 54 50 51 50 49 48 45 40 35 28 21 20 20 23 25 28 31 31 29 26 19 17 15 25 27 24 25 25 19
43 63 99 103 100 93 89 84 84 80 77 62 59 56 54 56 47 50 53 53 51 48 44 34 29 24 20 19 21 26 27 28 27 24 20 21 25 23 25 24 27 29 26 22
41 46 84 105 103 97 94 91 88 80 76 64 59 59 58 57 54 54 54 53 52 48 43 37 29 26 21 21 22 26 28 30 27 28 28 23 24 22 26 29 28 27 26 26
46 38 54 98 104 99 99 95 88 81 71 65 61 59 58 57 54 55 56 53 50 48 43 36 27 26 24 22 21 24 28 32 31 30 26 25 26 27 30 32 27 28 29 30
48 42 45 80 104 103 102 95 89 81 75 69 66 59 55 53 55 53 53 50 46 46 39 34 29 31 28 25 24 26 26 27 27 29 31 31 32 26 30 30 31 31 32 31
48 42 47 58 94 106 103 95 88 81 75 71 60 58 58 54 46 56 43 44 46 44 39 37 31 33 34 30 27 28 29 28 30 30 32 37 25 27 28 32 33 32 31 30
42 40 43 50 85 106 102 95 89 82 77 70 65 62 56 51 46 53 51 46 43 43 41 40 40 40 41 34 30 31 32 31 30 34 34 34 30 28 30 30 29 28 28 28
38 32 38 46 80 101 101 95 89 84 77 70 64 62 59 52 49 49 51 48 47 49 48 46 47 44 39 36 34 34 31 31 32 34 35 36 28 30 31 30 32 26 24 23
36 32 35 48 79 94 101 93 88 83 77 70 67 64 60 55 46 48 48 46 47 47 47 49 46 44 41 38 35 34 28 31 36 35 35 36 32 31 32 35 23 25 24 25
35 30 31 45 76 95 99 91 87 83 75 70 66 65 62 54 48 47 48 50 52 50 51 51 45 44 42 35 33 33 29 31 31 31 34 33 29 31 32 27 28 27 28 28
35 30 30 51 85 91 95 90 84 79 75 68 67 65 60 52 50 47 45 50 47 48 49 44 40 40 37 33 34 31 35 34 35 35 33 34 29 26 27 28 28 28 29 28
30 28 31 56 82 89 91 85 82 77 71 68 64 54 55 51 50 50 49 50 47 44 45 45 43 38 31 27 37 39 35 36 39 37 34 32 31 26 25 27 28 27 25 25
32 27 38 62 85 85 87 83 79 74 69 66 58 53 46 46 48 48 44 46 39 40 39 42 42 37 32 32 38 42 45 37 38 37 33 31 31 27 25 27 27 26 27 29
28 35 58 74 76 84 84 82 77 75 72 67 58 45 41 37 44 46 44 46 45 43 40 41 37 34 32 35 36 29 26 29 35 33 31 35 31 29 27 28 30 30 31 32
40 52 63 71 74 84 84 84 80 75 69 60 47 38 39 36 37 46 44 40 41 38 36 35 34 34 35 37 35 32 31 31 30 32 35 35 33 31 31 31 32 34 35 36
61 61 68 63 68 81 83 81 76 73 63 56 50 44 39 32 30 39 42 40 35 40 34 29 31 37 41 36 34 31 34 35 37 38 40 40 38 36 35 34 35 37 38 39
57 50 54 61 68 80 81 78 74 70 54 49 51 43 36 31 25 28 37 36 34 36 36 37 38 40 34 39 42 38 38 41 49 47 38 41 41 40 39 39 39 40 43 45
44 50 53 66 75 79 78 70 68 56 48 46 39 37 42 35 36 33 29 33 36 33 36 39 39 39 43 44 44 40 41 39 34 36 38 42 42 43 43 44 45 46 47 48
50 54 59 65 71 73 67 61 56 49 47 45 33 23 26 23 29 31 34 35 22 33 41 38 39 41 42 43 35 30 34 39 39 41 43 42 42 43 45 46 47 48 50 50
48 49 52 62 61 55 50 44 43 43 49 34 21 18 28 16 23 28 27 29 42 37 39 39 39 28 29 27 29 36 44 47 40 37 37 38 40 43 44 45 47 48 50 50
40 43 47 50 50 52 49 42 40 39 39 34 25 21 22 25 24 28 29 29 33 35 33 33 33 31 31 32 34 36 36 38 42 43 40 35 39 43 45 47 49 49 49 50
50 49 45 41 39 42 31 37 29 30 28 25 25 22 19 23 20 17 28 37 38 33 30 31 33 32 30 30 34 35 36 36 36 33 38 43 45 47 48 46 46 47 49 52
55 51 25 20 24 27 19 22 26 10 9 8 9 9 12 15 17 17 20 21 19 23 27 27 28 29 31 32 32 34 34 34 38 41 42 44 44 41 42 44 47 50 53 54
26 20 22 23 20 22 22 17 13 11 10 7 9 14 18 19 18 19 20 18 17 13 17 22 27 28 27 26 28 30 34 39 40 40 39 38 40 42 45 49 50 49 48 49
24 19 10 5 3 6 9 9 8 7 7 9 11 13 16 25 22 20 19 19 20 22 24 25 26 27 30 34 33 32 33 31 32 35 38 41 45 47 48 47 47 49 52 55
17 6 9 5 6 9 8 8 6 8 11 14 15 14 20 20 21 21 23 24 25 25 25 26 26 25 25 24 24 27 32 36 38 41 44 46 46 46 48 50 52 55 58 62

GFSNW_500_spd_060.txt.gz
Wind_Speed
51 45 56 88 93 92 89 84 79 70 67 72 67 59 55 52 48 48 50 48 44 42 39 38 36 32 27 24 18 14 16 22 30 30 30 31 31 30 30 28 25 23 23 14
51 49 44 64 92 96 92 89 82 78 75 76 64 58 55 54 51 51 50 50 48 46 43 42 38 30 25 26 19 17 17 20 21 26 31 32 34 29 29 27 23 22 24 15
55 52 46 50 70 96 95 93 91 85 82 70 66 62 56 56 51 55 53 50 51 47 45 44 38 31 30 25 22 20 20 22 16 18 15 19 27 29 28 26 24 21 18 20
58 54 51 45 54 81 97 99 97 88 87 77 66 63 59 57 52 55 53 50 52 49 46 43 38 32 30 26 24 25 24 21 19 21 23 25 26 24 31 32 29 24 20 22
58 56 52 45 48 59 90 100 96 91 82 70 73 69 62 59 53 56 56 54 51 52 47 41 36 33 31 28 27 27 26 23 21 23 26 28 31 27 32 31 30 26 25 25
59 58 54 49 46 54 78 100 96 91 84 81 78 66 58 57 53 53 54 50 45 50 46 39 39 35 36 34 32 29 30 26 22 25 25 31 31 18 25 29 28 27 28 27
59 59 56 51 41 40 59 90 94 92 89 83 72 67 61 58 51 50 49 47 46 50 42 44 42 37 38 37 32 30 28 27 26 28 26 32 18 20 23 27 29 30 31 32
60 59 57 49 43 43 44 71 97 94 91 83 76 71 63 61 53 49 51 47 44 48 46 45 44 42 42 43 38 33 28 28 32 31 27 27 24 20 25 29 28 30 29 28
57 57 57 51 49 44 38 58 87 93 91 85 77 73 68 62 54 53 49 53 46 42 53 52 51 48 47 45 43 35 32 31 33 32 34 31 23 24 28 30 29 26 25 28
53 54 55 52 44 42 40 58 79 91 90 85 80 75 68 64 54 52 47 49 54 48 49 54 55 52 48 46 44 38 35 33 33 32 34 32 27 28 27 31 30 29 29 30
48 50 51 47 40 40 39 56 81 91 90 86 82 78 71 66 55 50 50 50 57 55 54 54 53 53 50 46 44 42 39 32 32 30 32 31 25 26 28 30 32 32 32 31
47 48 43 37 29 34 41 67 77 90 88 86 80 75 70 63 56 49 48 50 53 54 52 53 52 50 46 43 41 40 39 33 32 30 29 29 28 25 26 29 31 30 30 30
47 42 36 31 31 31 45 67 72 87 85 82 78 74 69 64 55 52 49 53 54 56 51 49 48 48 45 44 36 38 36 33 34 33 32 32 28 29 30 31 30 29 31 27
41 36 32 28 26 31 61 72 76 84 83 79 77 66 63 57 51 53 50 47 48 53 52 49 47 43 43 42 41 41 36 33 31 36 35 33 29 30 36 33 29 27 29 27
33 31 26 25 29 52 73 70 76 81 81 75 65 64 47 50 49 46 52 48 46 44 46 46 42 42 44 44 44 38 35 30 31 28 32 31 34 38 35 31 29 29 29 31
27 26 25 25 35 75 69 69 72 79 79 66 62 55 51 38 33 48 46 49 50 48 43 40 44 40 40 40 41 37 36 33 31 32 31 30 33 34 33 32 31 31 31 32
27 25 21 30 63 61 62 71 66 77 76 74 70 61 53 35 29 34 48 46 48 49 42 44 39 39 42 39 36 33 29 29 30 31 30 32 32 31 35 36 36 38 38 38
25 25 50 65 57 55 60 60 48 61 71 69 64 57 46 34 37 32 37 46 43 40 41 39 41 39 41 34 36 32 30 29 33 35 34 32 34 40 42 43 44 42 42 44
34 67 59 45 41 48 56 65 48 49 56 62 58 51 44 35 32 30 28 33 43 41 38 36 39 38 39 32 26 30 36 36 35 40 36 36 39 43 42 40 42 44 46 46
59 57 65 43 42 49 61 64 59 50 52 48 44 43 42 37 37 21 31 30 35 42 39 32 35 36 33 34 35 34 38 50 47 46 45 40 37 41 44 48 47 47 49 48
52 55 49 49 50 56 62 63 64 62 51 42 38 42 33 28 28 33 25 28 26 33 31 38 38 35 33 34 42 37 31 38 43 39 36 33 40 44 47 47 46 46 42 41
50 49 41 38 45 50 55 56 55 47 37 35 35 31 28 33 23 15 22 30 38 36 32 30 29 35 31 33 32 35 30 29 30 31 31 37 41 45 49 46 41 40 43 50
40 42 48 47 48 45 47 44 34 33 36 38 39 30 24 28 22 17 19 20 28 27 34 38 30 27 25 27 31 30 29 32 35 35 36 35 34 34 35 44 42 47 55 55
45 32 34 35 36 35 33 29 28 25 26 38 39 29 21 24 19 20 24 20 25 30 34 33 29 26 29 28 27 28 29 31 32 33 34 31 37 39 39 42 53 53 48 46
32 31 28 30 31 24 24 27 24 21 23 14 19 19 15 19 22 21 19 21 23 22 19 19 21 22 22 22 23 25 26 25 27 27 29 34 40 45 47 45 42 45 48 52
30 29 23 23 22 18 20 27 18 13 15 16 16 17 17 20 19 20 20 18 18 17 20 20 18 18 19 22 23 24 26 29 30 33 39 37 36 36 39 43 47 50 52 52
22 16 18 20 22 20 21 19 16 14 12 11 10 9 11 12 16 20 22 17 18 18 19 21 24 22 22 23 24 24 25 28 28 29 32 37 40 43 46 49 50 51 53 55

GFSNW_500_spd_066.txt.gz
Wind_Speed
52 50 53 56 53 51 54 49 51 67 77 82 83 79 65 65 65 62 52 49 50 50 46 42 40 35 27 30 30 27 21 21 18 17 14 18 22 22 26 27 27 28 29 25
58 54 52 57 57 56 53 54 46 56 65 85 84 74 73 71 66 64 54 48 49 51 45 46 43 35 33 32 32 32 26 27 24 21 17 16 17 18 23 27 27 29 31 26
61 58 55 55 61 59 59 58 56 53 61 79 81 77 80 73 70 63 56 50 50 51 48 45 45 40 37 36 34 33 31 31 27 22 17 19 19 19 23 25 31 28 29 25
65 58 57 56 57 62 64 64 61 52 43 75 86 82 79 75 73 63 59 53 52 53 52 46 40 39 40 39 38 38 37 37 28 24 23 23 22 21 23 25 23 28 20 24
74 71 63 59 58 62 66 64 59 56 49 44 76 84 86 81 73 64 59 54 51 51 49 47 46 42 41 42 42 40 38 37 31 30 27 25 26 20 23 23 24 23 23 21
65 69 72 67 64 65 72 63 59 56 52 41 66 88 85 80 73 68 60 53 48 52 48 42 45 44 44 46 46 44 41 40 34 32 29 29 28 18 17 20 23 23 22 16
50 70 68 72 67 64 59 58 60 59 55 55 54 80 85 80 74 69 63 59 54 52 51 36 41 45 44 44 43 44 42 38 35 35 32 40 22 19 22 23 20 21 21 20
48 64 69 61 68 59 59 55 56 54 52 47 43 71 86 81 77 73 65 57 51 45 43 51 38 40 48 49 46 43 41 38 39 40 36 33 27 19 18 22 22 21 23 25
49 61 54 65 63 63 56 54 51 52 46 36 32 65 83 85 79 74 64 58 53 48 48 48 50 46 40 50 46 44 41 38 38 40 40 39 24 19 21 26 23 18 27 27
46 61 56 54 63 57 54 51 49 49 44 35 40 58 83 85 80 71 66 58 54 50 53 53 50 49 47 42 45 46 45 42 42 40 41 39 28 26 23 30 16 27 32 29
43 64 46 54 56 53 52 47 47 44 36 35 37 48 68 86 83 72 66 60 54 47 47 49 52 53 53 49 43 45 44 46 46 44 45 43 27 30 30 23 27 28 29 30
47 51 51 49 51 54 48 48 48 39 35 33 30 50 51 62 83 68 65 54 54 51 50 49 52 51 51 51 54 46 44 39 41 38 41 38 34 33 31 28 28 28 30 31
52 57 51 46 49 49 47 45 39 31 27 30 35 33 49 63 78 78 64 56 52 49 46 45 44 44 50 52 52 50 42 46 44 37 35 35 35 33 30 31 32 31 30 34
56 56 46 48 48 48 43 42 34 31 26 27 39 38 38 44 73 72 62 57 54 51 49 47 44 43 46 45 47 47 49 49 43 41 37 35 36 31 32 38 33 36 39 42
51 51 48 47 48 45 41 38 35 29 27 27 35 38 25 36 55 66 60 54 52 53 51 49 46 43 40 45 45 42 41 40 42 45 40 39 39 30 31 35 33 33 37 42
45 46 46 46 41 40 41 37 29 27 27 24 45 45 42 34 41 51 57 55 52 50 47 46 44 42 42 38 34 34 37 36 34 33 36 39 39 38 36 35 33 34 31 27
42 41 42 43 38 38 34 26 21 19 22 34 32 27 40 43 35 38 48 55 53 50 46 46 42 40 39 38 33 20 30 34 35 34 35 37 39 42 41 37 36 35 33 34
41 41 41 42 38 34 30 28 21 30 43 32 24 28 33 43 49 41 32 49 50 47 48 46 42 38 39 42 29 26 26 27 27 32 35 35 37 41 38 37 38 38 38 37
41 41 39 36 30 29 26 19 31 51 38 27 38 47 43 44 37 38 36 34 41 46 44 42 41 39 39 36 26 24 23 25 28 33 38 37 37 36 40 38 37 37 39 40
31 30 29 29 25 22 21 34 52 56 36 31 48 38 34 42 38 35 33 34 29 36 41 39 41 35 33 31 27 28 28 28 30 36 37 38 38 39 41 41 38 43 46 48
25 28 30 29 22 34 42 40 48 46 38 43 54 35 37 39 39 31 28 28 27 29 32 35 35 32 34 33 33 30 30 33 34 38 40 36 35 33 33 34 36 38 42 49
26 28 27 30 47 41 37 37 20 50 49 37 38 41 46 40 40 34 31 27 26 28 30 30 31 28 28 31 33 33 32 32 33 34 36 37 37 37 35 40 39 43 45 51
31 39 42 57 44 43 45 25 32 59 45 32 35 44 42 37 32 26 26 24 21 22 22 22 21 25 23 24 28 31 34 35 35 33 38 40 39 38 37 34 39 39 41 45
46 28 25 39 39 37 38 29 29 43 40 40 37 33 33 35 29 24 23 22 14 14 16 18 22 20 22 24 24 25 31 29 27 30 34 35 31 31 34 34 36 39 37 37
29 22 33 34 35 38 35 38 37 35 32 26 25 29 28 26 30 31 28 29 20 14 15 12 12 16 16 19 30 32 29 27 27 27 29 30 31 32 32 33 34 35 35 39
18 18 27 40 38 35 36 43 39 34 34 32 31 31 31 32 31 28 24 22 21 19 13 15 13 13 15 17 19 22 23 23 23 25 27 28 30 31 33 35 37 39 42 44
19 25 28 28 25 21 22 26 26 27 28 27 25 25 28 27 26 24 24 23 20 15 17 17 17 19 20 19 19 19 19 20 23 25 27 30 32 33 35 37 38 40 42 44

GFSNW_500_spd_069.txt.gz
Wind_Speed
43 42 44 47 49 50 50 50 50 48 49 53 62 77 70 71 72 66 67 63 53 51 52 42 44 40 39 36 38 39 35 31 32 22 21 20 20 21 22 23 21 24 26 23
47 43 41 41 48 51 52 53 53 49 50 44 58 68 75 78 74 70 68 65 55 50 49 51 47 38 41 37 40 42 38 44 35 28 26 20 21 18 20 21 22 25 27 22
54 52 51 47 45 51 55 57 58 54 54 50 34 51 73 80 75 73 66 64 58 52 49 51 52 45 45 39 39 35 42 41 37 31 20 21 21 23 23 24 25 22 26 23
60 58 57 58 53 52 59 64 59 56 54 51 40 37 61 75 78 74 72 57 59 51 50 52 54 51 40 39 38 43 42 45 39 33 30 21 22 23 23 23 23 23 16 19
64 65 65 65 61 58 63 66 59 57 56 50 47 46 40 66 77 75 73 70 63 51 51 52 50 51 47 45 42 41 43 41 41 38 36 31 29 27 24 24 23 23 21 20
74 72 72 69 63 65 67 60 60 57 57 51 52 46 34 55 71 77 73 72 56 49 47 51 52 48 43 53 47 45 46 45 43 43 35 34 39 25 27 24 22 23 23 20
78 73 68 65 66 70 68 59 62 61 62 57 44 44 39 39 63 75 74 59 60 49 42 50 41 45 51 52 52 42 47 46 44 42 37 43 37 28 27 25 26 25 24 23
59 65 65 59 67 67 68 60 65 58 58 55 50 45 47 37 53 68 76 70 53 50 41 50 50 46 40 50 57 51 48 44 45 45 40 38 35 33 26 25 27 25 25 25
46 55 63 72 64 69 63 66 61 57 54 52 48 45 45 46 42 65 73 69 62 46 62 50 52 50 41 37 52 53 47 45 46 44 43 44 36 30 25 28 37 18 26 28
43 48 50 59 73 70 60 59 62 55 51 51 48 47 43 43 37 56 67 63 69 61 53 50 48 47 46 44 38 51 53 47 48 45 45 43 37 32 28 36 19 27 30 31
49 49 48 50 56 70 61 57 59 51 49 47 48 48 47 42 41 47 65 57 69 59 56 52 48 47 51 45 51 42 44 53 51 45 45 43 38 30 31 24 31 31 32 33
49 47 45 43 56 63 60 57 54 49 46 42 48 49 44 37 34 42 60 63 62 51 51 54 49 40 55 50 46 40 31 49 48 49 43 41 37 31 33 33 33 34 35 36
47 42 42 48 57 63 52 52 50 47 42 39 31 35 34 31 36 45 55 62 57 55 54 53 53 48 45 45 54 50 45 36 43 44 43 42 41 38 37 36 36 38 38 37
40 41 46 50 56 52 52 48 45 43 45 43 38 33 28 32 33 37 63 57 57 54 52 51 49 43 42 43 47 50 53 46 43 40 39 39 39 32 35 38 39 40 42 39
44 48 46 49 51 51 46 44 41 41 39 33 29 27 26 39 31 28 49 66 49 60 54 50 47 46 45 43 40 40 46 49 47 46 41 40 44 45 38 37 38 36 39 41
54 50 45 49 48 46 44 42 41 41 37 32 25 26 34 45 38 43 40 56 60 55 54 51 49 44 45 42 38 31 35 36 34 41 43 41 41 40 40 45 46 42 37 37
46 47 44 46 46 41 39 42 41 37 29 24 17 34 39 49 50 49 45 51 63 50 49 49 45 44 42 41 36 25 25 27 29 36 36 33 36 31 32 39 39 38 39 41
42 43 44 42 39 38 41 38 30 25 21 20 21 41 34 33 39 40 38 43 60 51 44 46 44 41 39 35 28 28 28 24 20 26 35 37 35 36 39 39 38 40 41 39
46 44 41 40 41 41 38 31 26 12 19 25 43 42 33 37 31 31 31 40 46 53 50 46 42 40 39 32 24 21 23 23 25 24 27 29 32 34 38 40 39 39 37 39
43 42 42 41 38 36 28 25 16 30 37 41 40 39 32 27 38 31 39 38 46 47 48 47 42 35 35 36 27 23 23 25 23 24 26 30 34 37 40 40 40 40 40 39
38 36 35 36 31 29 25 16 29 43 41 41 46 42 48 34 33 31 27 26 29 39 47 42 41 39 36 35 24 25 26 25 27 30 33 36 34 34 36 39 36 36 35 35
32 33 29 29 29 28 21 21 40 38 46 40 21 19 37 32 48 37 33 28 26 29 32 37 41 36 31 30 29 27 26 27 29 33 35 33 33 33 34 34 35 35 38 38
27 29 27 24 22 25 20 20 45 46 39 24 24 28 51 42 41 36 34 31 28 25 26 28 30 28 28 28 28 27 29 31 33 33 31 30 33 33 35 35 37 39 39 36
27 27 23 24 21 23 24 31 47 41 31 30 24 35 47 41 48 37 32 29 28 25 25 24 23 24 23 21 28 29 27 25 28 30 31 32 33 38 39 43 40 37 38 39
35 30 34 26 29 28 27 34 41 39 25 32 26 28 46 46 41 37 32 27 25 22 20 18 16 20 21 19 21 22 23 23 24 23 26 29 33 36 36 36 36 37 38 40
25 29 31 25 26 24 22 45 45 27 30 37 29 26 35 35 32 30 28 25 22 17 15 17 14 12 15 20 20 23 25 27 32 33 31 31 32 31 31 31 33 36 38 41
25 28 28 26 24 24 28 45 43 28 30 31 32 30 31 28 26 26 20 15 14 17 14 14 15 16 16 17 18 20 23 25 27 28 26 26 27 29 31 34 36 37 38 39

GFSNW_500_spd_072.txt.gz
Wind_Speed
37 39 41 41 42 44 48 49 48 45 42 45 42 34 22 34 61 65 54 60 45 43 44 33 47 47 49 44 33 45 42 39 32 35 30 26 28 28 28 26 19 20 20 22
39 41 44 45 42 40 45 51 49 45 47 46 44 39 33 34 44 61 64 65 53 38 44 46 48 50 47 47 43 39 39 45 35 32 35 37 30 29 22 26 26 28 26 21
39 40 43 44 43 41 44 49 49 48 48 42 46 45 41 42 36 52 63 57 54 47 37 48 46 49 47 47 39 45 43 46 48 42 37 22 31 29 26 23 22 20 22 20
47 45 43 46 47 46 49 50 43 38 42 41 41 43 43 39 30 47 58 63 62 34 31 48 43 35 53 50 37 48 49 48 47 43 38 30 28 26 30 33 29 27 20 21
53 53 53 51 50 50 57 53 47 43 38 39 45 44 39 41 35 29 51 67 54 42 45 34 47 45 45 50 42 46 44 52 46 41 39 36 31 24 26 32 31 26 26 26
55 56 56 54 57 58 64 54 51 53 47 43 43 40 43 38 39 32 39 56 64 58 30 36 32 36 49 52 44 49 53 48 42 46 40 37 46 35 31 32 27 25 25 23
64 64 62 61 60 62 63 59 56 57 55 49 42 48 43 40 37 36 26 50 65 52 30 36 41 40 28 36 42 47 59 50 46 38 44 55 44 43 40 39 33 29 27 25
79 81 79 74 68 65 65 62 62 58 57 53 49 49 44 45 41 42 33 43 58 66 56 42 48 27 40 47 29 49 56 48 47 51 46 48 46 42 37 33 31 30 28 23
50 53 65 75 71 71 68 64 58 56 54 55 52 52 49 46 42 40 33 32 55 60 68 50 41 36 41 32 42 51 53 50 54 36 51 52 43 38 38 33 39 33 22 28
52 51 51 56 68 66 64 65 59 59 59 57 53 51 46 44 43 40 37 27 48 47 59 64 48 36 39 39 25 42 51 55 49 53 47 49 44 36 32 40 35 20 31 31
55 54 53 51 59 70 66 59 63 61 62 59 51 48 44 44 42 38 32 30 40 54 56 51 55 53 35 53 48 30 34 56 57 47 47 54 43 40 41 31 26 32 37 34
48 52 48 48 51 73 63 64 62 63 57 53 44 44 37 36 40 36 33 25 38 42 56 60 52 57 45 39 41 38 32 34 48 59 53 48 37 38 32 30 37 40 42 39
39 43 41 41 50 65 67 58 57 55 54 49 46 41 39 38 36 34 38 37 35 41 34 44 58 49 46 38 35 44 28 27 35 38 45 48 49 43 43 32 31 33 38 40
43 43 39 39 44 52 53 62 57 52 51 47 39 38 36 37 37 38 38 32 37 56 47 36 34 55 51 40 34 49 51 41 33 39 41 45 39 42 36 32 40 37 39 38
43 41 42 41 44 53 59 56 56 50 45 42 39 28 32 34 38 38 37 30 34 54 54 62 60 50 46 49 37 40 50 46 46 38 31 39 42 35 36 41 38 39 36 37
39 37 38 41 46 54 60 58 53 47 39 38 38 35 32 29 32 35 32 30 40 49 35 51 55 50 48 50 39 34 38 43 49 49 46 47 39 39 39 40 40 44 46 44
39 38 41 45 51 56 54 49 46 41 39 39 33 29 28 29 30 32 31 37 56 50 40 33 45 52 50 46 45 35 32 28 31 38 41 39 48 46 45 46 46 40 38 38
45 44 46 49 50 51 48 41 35 38 40 38 29 27 20 24 33 33 37 54 51 55 42 44 50 43 49 46 33 32 28 30 27 25 24 28 32 35 35 33 35 35 36 37
43 44 43 43 43 42 39 37 36 36 35 31 28 24 24 28 40 36 39 54 50 53 35 30 45 47 42 36 32 30 31 33 31 28 24 25 26 28 34 36 37 36 37 38
42 41 43 42 38 35 33 34 32 29 29 28 24 26 34 34 41 41 38 40 31 40 47 50 41 40 42 40 32 28 29 28 25 26 29 28 30 31 30 31 33 35 36 38
43 43 41 40 39 39 36 32 23 21 26 25 28 42 35 28 33 29 31 24 37 33 46 45 43 41 35 33 26 22 21 22 23 27 29 32 33 35 36 34 34 32 34 35
34 34 36 37 36 31 26 24 17 19 16 25 40 47 18 26 40 37 34 22 29 34 45 47 48 37 29 26 23 23 25 26 27 29 33 36 37 39 37 35 34 35 34 33
34 34 34 32 29 26 19 16 21 21 26 27 29 30 24 24 40 39 35 26 29 31 38 42 42 37 33 32 29 23 26 29 30 31 33 34 35 34 34 33 35 35 35 38
28 30 29 29 27 22 14 16 30 28 32 19 22 26 34 26 33 34 21 29 29 27 28 29 34 38 38 34 30 27 29 29 30 31 32 34 36 36 35 33 34 35 39 42
25 26 26 24 21 20 16 16 35 33 31 18 25 29 42 34 37 37 28 32 27 25 23 25 28 28 28 29 28 25 28 31 30 29 26 23 25 27 31 35 38 37 42 42
22 21 21 18 19 20 20 18 26 36 27 17 27 35 37 47 43 28 28 27 26 21 18 20 20 21 22 25 27 26 24 22 23 21 21 24 29 33 36 41 44 43 39 39
17 20 17 15 20 18 14 17 34 24 20 15 12 27 32 36 34 32 29 24 17 18 24 20 15 16 17 19 20 19 20 22 25 28 30 33 36 37 36 34 35 36 38 40

GFSNW_500_spd_075.txt.gz
Wind_Speed
49 46 42 37 34 29 30 35 34 33 37 38 33 26 30 24 21 26 48 52 53 48 42 37 34 36 41 40 43 44 48 55 45 45 33 34 31 32 35 31 28 28 26 23
35 32 30 29 28 33 37 41 39 37 39 36 34 37 36 30 28 26 21 43 51 57 58 44 35 32 39 44 47 47 47 48 48 43 42 39 40 34 35 36 31 28 24 14
35 33 33 35 36 35 38 39 43 44 42 38 39 38 35 33 28 28 29 22 57 52 56 49 42 30 30 42 47 47 41 43 54 52 45 41 42 34 32 34 41 31 30 27
36 38 38 38 37 37 43 40 43 43 39 38 34 33 30 27 28 30 27 23 64 46 46 45 43 43 37 27 32 43 46 40 52 48 44 39 37 34 33 37 35 34 21 26
40 41 40 40 39 40 47 41 44 44 38 34 28 28 30 30 26 28 25 23 48 60 55 39 38 52 28 40 45 45 45 36 50 56 44 45 34 37 29 29 32 33 29 31
42 42 42 44 45 49 50 44 45 50 42 38 35 30 25 22 24 26 26 25 27 66 61 52 48 41 38 28 33 38 40 40 47 59 57 45 49 39 37 31 31 32 36 35
48 50 50 50 51 54 53 50 50 52 44 41 38 34 32 28 25 25 24 29 26 41 54 61 58 36 30 46 37 27 37 42 41 55 46 58 56 50 41 35 32 27 30 34
55 55 55 55 57 55 52 50 52 50 50 46 43 41 37 36 26 26 29 29 27 37 60 57 52 42 43 24 39 41 45 36 41 49 55 52 53 49 47 44 38 35 37 36
61 61 61 61 59 59 60 55 49 51 55 52 49 45 43 36 33 28 30 28 25 27 65 60 60 43 41 26 23 46 39 39 41 44 57 64 58 49 44 47 47 38 37 35
67 69 69 68 67 66 66 63 58 54 56 55 53 51 45 39 34 32 32 27 29 21 53 66 75 51 31 14 20 30 30 35 40 44 53 52 51 42 50 50 47 37 32 33
45 46 46 47 52 57 61 57 56 55 57 55 54 55 49 42 37 34 34 34 34 36 35 63 72 56 43 23 21 27 27 37 41 46 51 50 42 43 47 44 40 35 35 36
51 51 50 48 47 44 46 64 61 56 56 56 53 56 48 43 37 35 37 36 31 32 31 47 65 70 48 36 27 26 28 26 44 50 48 44 45 37 36 41 47 37 44 46
49 49 52 58 56 54 50 64 65 61 58 52 57 52 42 39 39 36 37 35 34 36 25 30 53 63 63 52 45 28 30 32 27 36 44 50 47 45 47 40 39 36 41 45
39 38 38 47 56 57 57 55 60 58 57 52 51 48 39 39 42 36 36 33 32 34 28 41 48 51 48 48 52 56 36 36 43 34 33 36 38 51 49 46 38 38 34 34
35 32 38 42 48 52 50 58 55 57 50 49 44 43 42 41 40 38 34 33 30 30 26 34 52 45 39 42 38 47 44 39 40 43 34 36 34 37 43 33 34 30 29 29
34 39 40 40 44 47 51 55 53 54 46 43 46 40 41 41 42 39 38 36 31 34 24 34 37 31 40 34 44 41 39 34 36 40 34 32 29 31 36 36 43 32 36 36
39 34 30 32 35 39 46 54 49 43 43 45 38 38 39 44 43 42 40 37 35 36 32 40 44 36 34 34 35 48 42 38 33 29 39 41 39 39 34 35 35 36 37 39
37 38 36 31 35 40 45 45 50 46 41 36 36 40 37 36 38 39 37 35 34 35 34 41 62 39 29 42 34 35 39 40 37 30 34 39 38 42 45 45 45 48 49 46
36 36 34 38 37 33 44 44 45 45 40 36 34 37 35 33 31 30 33 37 36 34 33 45 46 36 42 38 35 36 38 34 34 32 30 26 28 32 33 32 32 33 35 36
35 37 39 43 42 38 38 40 43 41 38 36 35 34 33 28 25 31 30 33 36 34 45 61 42 26 21 32 31 36 35 29 34 34 30 27 28 26 26 27 29 30 32 34
42 44 44 42 40 39 39 41 42 40 37 34 34 32 28 26 18 24 26 19 31 37 53 46 35 23 27 35 34 25 28 33 34 34 30 30 33 33 34 35 35 34 33 32
37 40 40 39 38 36 35 34 32 32 32 31 27 26 27 24 22 15 28 19 25 33 34 42 34 24 32 37 34 29 28 27 28 29 30 33 34 35 36 36 36 35 35 34
35 36 38 37 34 31 29 28 22 17 18 23 26 26 19 20 21 26 21 19 22 29 29 24 25 37 35 33 28 27 29 27 25 27 28 30 32 33 34 36 37 37 37 38
29 31 32 31 26 22 18 17 16 10 13 19 24 27 14 19 28 17 22 24 20 22 26 24 25 35 36 33 26 24 23 23 27 28 30 32 33 32 33 35 38 39 40 41
28 27 23 22 17 11 8 18 27 28 22 19 25 22 15 16 16 25 26 32 24 22 20 23 30 38 41 32 28 28 24 24 28 32 32 31 32 32 33 34 35 35 35 35
22 20 17 14 9 8 8 16 23 25 18 16 17 17 18 19 22 26 35 20 27 24 18 19 25 32 35 36 32 30 29 29 32 31 29 30 33 33 29 26 25 32 38 40
16 15 13 10 8 8 6 8 16 20 13 16 17 18 19 21 16 29 20 18 22 20 21 14 17 17 18 26 31 32 31 29 28 31 32 30 28 27 27 30 34 37 39 40